Time,TemperatureF,DewpointF,PressureIn,WindDirection,WindDirectionDegrees,WindSpeedMPH,WindSpeedGustMPH,Humidity,HourlyPrecipIn,Conditions,Clouds,dailyrainin,SoftwareType,DateUTC
2013-07-03 00:01:00,70.3,70.0,30.12,WNW,290,0.0,0.0,99,0.00,,,0.61,Wunderground v.1.15,2013-07-03 04:01:00,
2013-07-03 00:02:00,70.3,70.0,30.12,WNW,290,0.0,0.0,99,0.00,,,0.00,Wunderground v.1.15,2013-07-03 04:02:00,
2013-07-03 00:03:00,70.3,70.0,30.12,NW,314,0.0,0.0,99,0.00,,,0.00,Wunderground v.1.15,2013-07-03 04:03:00,
2013-07-03 00:04:00,70.3,70.0,30.11,NW,316,0.0,0.0,99,0.00,,,0.00,Wunderground v.1.15,2013-07-03 04:04:00,
2013-07-03 00:08:00,70.4,70.1,30.11,NW,316,0.0,0.0,99,0.14,,,0.01,Wunderground v.1.15,2013-07-03 04:08:00,
2013-07-03 00:09:00,70.4,70.1,30.11,NW,316,0.0,0.0,99,0.12,,,0.01,Wunderground v.1.15,2013-07-03 04:09:00,
2013-07-03 00:11:00,70.4,70.1,30.11,NW,316,0.0,0.0,99,0.10,,,0.02,Wunderground v.1.15,2013-07-03 04:11:00,
2013-07-03 00:12:00,70.4,70.1,30.11,NW,316,0.0,0.0,99,0.10,,,0.02,Wunderground v.1.15,2013-07-03 04:12:00,
2013-07-03 00:16:00,70.4,70.1,30.11,NW,316,0.0,0.0,99,0.17,,,0.03,Wunderground v.1.15,2013-07-03 04:16:00,
2013-07-03 00:17:00,70.4,70.1,30.11,NW,316,0.0,0.0,99,0.17,,,0.03,Wunderground v.1.15,2013-07-03 04:17:00,
2013-07-03 00:19:00,70.4,70.1,30.11,NW,316,0.0,0.0,99,0.12,,,0.03,Wunderground v.1.15,2013-07-03 04:19:00,
2013-07-03 00:21:00,70.4,70.1,30.11,NW,316,0.0,0.0,99,0.09,,,0.03,Wunderground v.1.15,2013-07-03 04:21:00,
2013-07-03 00:22:00,70.4,70.1,30.11,NW,316,0.0,0.0,99,0.08,,,0.03,Wunderground v.1.15,2013-07-03 04:22:00,
2013-07-03 00:23:00,70.4,70.1,30.11,NW,316,0.0,0.0,99,0.07,,,0.03,Wunderground v.1.15,2013-07-03 04:23:00,
2013-07-03 00:25:00,70.4,70.1,30.11,NW,316,0.0,0.0,99,0.05,,,0.03,Wunderground v.1.15,2013-07-03 04:25:00,
2013-07-03 00:28:00,70.4,70.1,30.11,NW,316,0.0,0.0,99,0.04,,,0.03,Wunderground v.1.15,2013-07-03 04:28:00,
2013-07-03 00:30:00,70.4,70.1,30.11,West,271,0.0,0.0,99,0.04,,,0.03,Wunderground v.1.15,2013-07-03 04:30:00,
2013-07-03 00:31:00,70.4,70.1,30.11,West,271,0.0,0.0,99,0.04,,,0.03,Wunderground v.1.15,2013-07-03 04:31:00,
2013-07-03 00:32:00,70.4,70.1,30.11,West,271,0.0,0.0,99,0.00,,,0.03,Wunderground v.1.15,2013-07-03 04:32:00,
2013-07-03 00:34:00,70.4,70.1,30.11,West,271,0.0,0.0,99,0.00,,,0.03,Wunderground v.1.15,2013-07-03 04:34:00,
2013-07-03 00:36:00,70.4,70.1,30.11,West,271,0.0,0.0,99,0.00,,,0.03,Wunderground v.1.15,2013-07-03 04:36:00,
2013-07-03 00:39:00,70.5,70.2,30.11,West,271,0.0,0.0,99,0.00,,,0.03,Wunderground v.1.15,2013-07-03 04:39:00,
2013-07-03 00:41:00,70.5,70.2,30.11,West,272,0.0,0.0,99,0.00,,,0.03,Wunderground v.1.15,2013-07-03 04:41:00,
2013-07-03 00:42:00,70.5,70.2,30.11,West,271,0.0,0.0,99,0.00,,,0.03,Wunderground v.1.15,2013-07-03 04:42:00,
2013-07-03 00:43:00,70.5,70.2,30.10,West,271,0.0,0.0,99,0.00,,,0.03,Wunderground v.1.15,2013-07-03 04:43:00,
2013-07-03 00:47:00,70.5,70.2,30.10,West,271,0.0,0.0,99,0.00,,,0.03,Wunderground v.1.15,2013-07-03 04:47:00,
2013-07-03 00:48:00,70.5,70.2,30.11,West,271,0.0,0.0,99,0.00,,,0.03,Wunderground v.1.15,2013-07-03 04:48:00,
2013-07-03 00:49:00,70.5,70.2,30.10,West,271,0.0,0.0,99,0.00,,,0.03,Wunderground v.1.15,2013-07-03 04:49:00,
2013-07-03 00:51:00,70.5,70.2,30.11,West,271,0.0,0.0,99,0.00,,,0.03,Wunderground v.1.15,2013-07-03 04:51:00,
2013-07-03 00:53:00,70.5,70.2,30.10,West,271,0.0,0.0,99,0.00,,,0.03,Wunderground v.1.15,2013-07-03 04:53:00,
2013-07-03 00:55:00,70.5,70.2,30.10,West,271,0.0,0.0,99,0.00,,,0.03,Wunderground v.1.15,2013-07-03 04:55:00,
2013-07-03 00:56:00,70.5,70.2,30.10,West,271,0.0,0.0,99,0.00,,,0.03,Wunderground v.1.15,2013-07-03 04:56:00,
2013-07-03 00:58:00,70.5,70.2,30.10,West,271,0.0,0.0,99,0.00,,,0.03,Wunderground v.1.15,2013-07-03 04:58:00,
2013-07-03 01:01:00,70.6,70.3,30.11,West,271,0.0,0.0,99,0.00,,,0.03,Wunderground v.1.15,2013-07-03 05:01:00,
2013-07-03 01:03:00,70.6,70.3,30.11,West,271,0.0,0.0,99,0.00,,,0.03,Wunderground v.1.15,2013-07-03 05:03:00,
2013-07-03 01:04:00,70.6,70.3,30.10,West,271,0.0,0.0,99,0.00,,,0.03,Wunderground v.1.15,2013-07-03 05:04:00,
2013-07-03 01:07:00,70.6,70.3,30.11,West,271,0.0,0.0,99,0.00,,,0.03,Wunderground v.1.15,2013-07-03 05:07:00,
2013-07-03 01:09:00,70.6,70.3,30.10,West,271,0.0,0.0,99,0.00,,,0.03,Wunderground v.1.15,2013-07-03 05:09:00,
2013-07-03 01:10:00,70.6,70.3,30.10,West,271,0.0,0.0,99,0.00,,,0.03,Wunderground v.1.15,2013-07-03 05:10:00,
2013-07-03 01:12:00,70.6,70.3,30.10,West,271,0.0,0.0,99,0.00,,,0.03,Wunderground v.1.15,2013-07-03 05:12:00,
2013-07-03 01:14:00,70.6,70.3,30.10,West,271,0.0,0.0,99,0.00,,,0.03,Wunderground v.1.15,2013-07-03 05:14:00,
2013-07-03 01:15:00,70.6,70.3,30.10,West,271,0.0,0.0,99,0.00,,,0.03,Wunderground v.1.15,2013-07-03 05:15:00,
2013-07-03 01:17:00,70.6,70.3,30.10,West,271,0.0,0.0,99,0.00,,,0.03,Wunderground v.1.15,2013-07-03 05:17:00,
2013-07-03 01:19:00,70.6,70.3,30.10,West,271,0.0,0.0,99,0.00,,,0.03,Wunderground v.1.15,2013-07-03 05:19:00,
2013-07-03 01:21:00,70.6,70.3,30.11,West,271,0.0,0.0,99,0.00,,,0.03,Wunderground v.1.15,2013-07-03 05:21:00,
2013-07-03 01:25:00,70.6,70.3,30.11,West,271,0.0,0.0,99,0.00,,,0.03,Wunderground v.1.15,2013-07-03 05:25:00,
2013-07-03 01:26:00,70.6,70.3,30.10,West,271,0.0,0.0,99,0.00,,,0.03,Wunderground v.1.15,2013-07-03 05:26:00,
2013-07-03 01:28:00,70.7,70.4,30.10,West,271,0.0,0.0,99,0.00,,,0.03,Wunderground v.1.15,2013-07-03 05:28:00,
2013-07-03 01:30:00,70.7,70.4,30.10,West,270,0.0,0.0,99,0.00,,,0.03,Wunderground v.1.15,2013-07-03 05:30:00,
2013-07-03 01:31:00,70.7,70.4,30.11,West,271,0.0,0.0,99,0.00,,,0.03,Wunderground v.1.15,2013-07-03 05:31:00,
2013-07-03 01:32:00,70.7,70.4,30.11,West,271,0.0,0.0,99,0.00,,,0.03,Wunderground v.1.15,2013-07-03 05:32:00,
2013-07-03 01:36:00,70.7,70.4,30.10,West,271,0.0,0.0,99,0.00,,,0.03,Wunderground v.1.15,2013-07-03 05:36:00,
2013-07-03 01:37:00,70.6,70.3,30.10,West,271,0.0,0.0,99,0.00,,,0.03,Wunderground v.1.15,2013-07-03 05:37:00,
2013-07-03 01:39:00,70.6,70.3,30.10,West,270,0.0,0.0,99,0.00,,,0.03,Wunderground v.1.15,2013-07-03 05:39:00,
2013-07-03 01:41:00,70.6,70.3,30.11,West,271,0.0,0.0,99,0.00,,,0.03,Wunderground v.1.15,2013-07-03 05:41:00,
2013-07-03 01:43:00,70.6,70.3,30.10,West,271,0.0,0.0,99,0.00,,,0.03,Wunderground v.1.15,2013-07-03 05:43:00,
2013-07-03 01:48:00,70.7,70.4,30.10,West,271,0.0,0.0,99,0.00,,,0.03,Wunderground v.1.15,2013-07-03 05:48:00,
2013-07-03 01:49:00,70.7,70.4,30.10,West,271,0.0,0.0,99,0.00,,,0.03,Wunderground v.1.15,2013-07-03 05:49:00,
2013-07-03 01:52:00,70.7,70.4,30.11,West,270,0.0,0.0,99,0.00,,,0.03,Wunderground v.1.15,2013-07-03 05:52:00,
2013-07-03 01:54:00,70.7,70.4,30.10,West,271,0.0,0.0,99,0.00,,,0.03,Wunderground v.1.15,2013-07-03 05:54:00,
2013-07-03 01:55:00,70.7,70.4,30.10,West,271,0.0,0.0,99,0.00,,,0.03,Wunderground v.1.15,2013-07-03 05:55:00,
2013-07-03 01:58:00,70.7,70.4,30.10,West,271,0.0,0.0,99,0.00,,,0.03,Wunderground v.1.15,2013-07-03 05:58:00,
2013-07-03 01:59:00,70.7,70.4,30.10,West,271,0.0,0.0,99,0.00,,,0.03,Wunderground v.1.15,2013-07-03 05:59:00,
2013-07-03 02:01:00,70.7,70.4,30.10,West,271,0.0,0.0,99,0.00,,,0.03,Wunderground v.1.15,2013-07-03 06:01:00,
2013-07-03 02:02:00,70.7,70.4,30.10,West,271,0.0,0.0,99,0.00,,,0.03,Wunderground v.1.15,2013-07-03 06:02:00,
2013-07-03 02:03:00,70.8,70.5,30.10,West,271,0.0,0.0,99,0.00,,,0.03,Wunderground v.1.15,2013-07-03 06:03:00,
2013-07-03 02:04:00,70.8,70.5,30.10,West,271,0.0,0.0,99,0.00,,,0.03,Wunderground v.1.15,2013-07-03 06:04:00,
2013-07-03 02:07:00,70.7,70.4,30.10,West,271,0.0,0.0,99,0.00,,,0.03,Wunderground v.1.15,2013-07-03 06:07:00,
2013-07-03 02:08:00,70.7,70.4,30.10,West,271,0.0,0.0,99,0.00,,,0.03,Wunderground v.1.15,2013-07-03 06:08:00,
2013-07-03 02:09:00,70.8,70.5,30.10,West,271,0.0,0.0,99,0.00,,,0.03,Wunderground v.1.15,2013-07-03 06:09:00,
2013-07-03 02:10:00,70.8,70.5,30.10,West,271,0.0,0.0,99,0.00,,,0.03,Wunderground v.1.15,2013-07-03 06:10:00,
2013-07-03 02:13:00,70.8,70.5,30.10,West,271,0.0,0.0,99,0.00,,,0.03,Wunderground v.1.15,2013-07-03 06:13:00,
2013-07-03 02:14:00,70.8,70.5,30.10,West,271,0.0,0.0,99,0.00,,,0.03,Wunderground v.1.15,2013-07-03 06:14:00,
2013-07-03 02:16:00,70.8,70.5,30.10,West,271,0.0,0.0,99,0.00,,,0.03,Wunderground v.1.15,2013-07-03 06:16:00,
2013-07-03 02:17:00,70.8,70.5,30.10,West,271,0.0,0.0,99,0.00,,,0.03,Wunderground v.1.15,2013-07-03 06:17:00,
2013-07-03 02:20:00,70.8,70.5,30.10,West,271,0.0,0.0,99,0.00,,,0.03,Wunderground v.1.15,2013-07-03 06:20:00,
2013-07-03 02:22:00,70.8,70.5,30.10,West,271,0.0,0.0,99,0.00,,,0.03,Wunderground v.1.15,2013-07-03 06:22:00,
2013-07-03 02:23:00,70.8,70.5,30.10,West,272,0.0,0.0,99,0.00,,,0.03,Wunderground v.1.15,2013-07-03 06:23:00,
2013-07-03 02:25:00,70.8,70.5,30.10,West,270,0.0,0.0,99,0.00,,,0.03,Wunderground v.1.15,2013-07-03 06:25:00,
2013-07-03 02:26:00,70.8,70.5,30.10,West,271,0.0,0.0,99,0.00,,,0.03,Wunderground v.1.15,2013-07-03 06:26:00,
2013-07-03 02:27:00,70.8,70.5,30.10,West,271,0.0,0.0,99,0.00,,,0.03,Wunderground v.1.15,2013-07-03 06:27:00,
2013-07-03 02:29:00,70.8,70.5,30.10,West,271,0.0,0.0,99,0.00,,,0.03,Wunderground v.1.15,2013-07-03 06:29:00,
2013-07-03 02:30:00,70.8,70.5,30.10,West,270,0.0,0.0,99,0.00,,,0.03,Wunderground v.1.15,2013-07-03 06:30:00,
2013-07-03 02:32:00,70.8,70.5,30.10,West,270,0.0,0.0,99,0.00,,,0.03,Wunderground v.1.15,2013-07-03 06:32:00,
2013-07-03 02:33:00,70.8,70.5,30.10,West,271,0.0,0.0,99,0.00,,,0.03,Wunderground v.1.15,2013-07-03 06:33:00,
2013-07-03 02:34:00,70.8,70.5,30.10,West,271,0.0,0.0,99,0.00,,,0.03,Wunderground v.1.15,2013-07-03 06:34:00,
2013-07-03 02:37:00,70.8,70.5,30.10,West,271,0.0,0.0,99,0.00,,,0.03,Wunderground v.1.15,2013-07-03 06:37:00,
2013-07-03 02:38:00,70.8,70.5,30.10,West,271,0.0,0.0,99,0.00,,,0.03,Wunderground v.1.15,2013-07-03 06:38:00,
2013-07-03 02:39:00,70.8,70.5,30.10,West,271,0.0,0.0,99,0.00,,,0.03,Wunderground v.1.15,2013-07-03 06:39:00,
2013-07-03 02:42:00,70.8,70.5,30.10,West,271,0.0,0.0,99,0.00,,,0.03,Wunderground v.1.15,2013-07-03 06:42:00,
2013-07-03 02:43:00,70.8,70.5,30.10,West,271,0.0,0.0,99,0.00,,,0.03,Wunderground v.1.15,2013-07-03 06:43:00,
2013-07-03 02:44:00,70.8,70.5,30.10,West,270,0.0,0.0,99,0.00,,,0.03,Wunderground v.1.15,2013-07-03 06:44:00,
2013-07-03 02:47:00,70.9,70.6,30.10,West,271,0.0,0.0,99,0.00,,,0.03,Wunderground v.1.15,2013-07-03 06:47:00,
2013-07-03 02:49:00,70.9,70.6,30.10,West,271,0.0,0.0,99,0.00,,,0.03,Wunderground v.1.15,2013-07-03 06:49:00,
2013-07-03 02:53:00,70.9,70.6,30.10,West,271,0.0,0.0,99,0.00,,,0.03,Wunderground v.1.15,2013-07-03 06:53:00,
2013-07-03 02:54:00,70.9,70.6,30.10,West,271,0.0,0.0,99,0.00,,,0.03,Wunderground v.1.15,2013-07-03 06:54:00,
2013-07-03 02:55:00,70.9,70.6,30.10,West,271,0.0,0.0,99,0.00,,,0.03,Wunderground v.1.15,2013-07-03 06:55:00,
2013-07-03 02:56:00,70.9,70.6,30.10,West,271,0.0,0.0,99,0.00,,,0.03,Wunderground v.1.15,2013-07-03 06:56:00,
2013-07-03 02:59:00,70.9,70.6,30.10,West,270,0.0,0.0,99,0.00,,,0.03,Wunderground v.1.15,2013-07-03 06:59:00,
2013-07-03 03:00:00,70.9,70.6,30.10,West,271,0.0,0.0,99,0.00,,,0.03,Wunderground v.1.15,2013-07-03 07:00:00,
2013-07-03 03:01:00,70.9,70.6,30.10,West,271,0.0,0.0,99,0.00,,,0.03,Wunderground v.1.15,2013-07-03 07:01:00,
2013-07-03 03:04:00,70.9,70.6,30.10,West,271,0.0,0.0,99,0.00,,,0.03,Wunderground v.1.15,2013-07-03 07:04:00,
2013-07-03 03:06:00,70.9,70.6,30.10,West,271,0.0,0.0,99,0.00,,,0.03,Wunderground v.1.15,2013-07-03 07:06:00,
2013-07-03 03:07:00,70.9,70.6,30.10,West,271,0.0,0.0,99,0.00,,,0.03,Wunderground v.1.15,2013-07-03 07:07:00,
2013-07-03 03:10:00,70.9,70.6,30.10,West,271,0.0,0.0,99,0.00,,,0.03,Wunderground v.1.15,2013-07-03 07:10:00,
2013-07-03 03:12:00,70.8,70.5,30.10,West,270,0.0,0.0,99,0.00,,,0.03,Wunderground v.1.15,2013-07-03 07:12:00,
2013-07-03 03:15:00,70.8,70.5,30.10,West,271,0.0,0.0,99,0.00,,,0.03,Wunderground v.1.15,2013-07-03 07:15:00,
2013-07-03 03:17:00,70.9,70.6,30.10,West,271,0.0,0.0,99,0.00,,,0.03,Wunderground v.1.15,2013-07-03 07:17:00,
2013-07-03 03:18:00,70.8,70.5,30.10,West,271,0.0,0.0,99,0.00,,,0.03,Wunderground v.1.15,2013-07-03 07:18:00,
2013-07-03 03:20:00,70.9,70.6,30.10,West,271,0.0,0.0,99,0.00,,,0.03,Wunderground v.1.15,2013-07-03 07:20:00,
2013-07-03 03:21:00,70.8,70.5,30.10,West,271,0.0,0.0,99,0.00,,,0.03,Wunderground v.1.15,2013-07-03 07:21:00,
2013-07-03 03:23:00,70.9,70.6,30.10,West,271,0.0,0.0,99,0.00,,,0.03,Wunderground v.1.15,2013-07-03 07:23:00,
2013-07-03 03:25:00,70.9,70.6,30.10,West,271,0.0,0.0,99,0.00,,,0.03,Wunderground v.1.15,2013-07-03 07:25:00,
2013-07-03 03:26:00,70.9,70.6,30.10,West,270,0.0,0.0,99,0.00,,,0.03,Wunderground v.1.15,2013-07-03 07:26:00,
2013-07-03 03:28:00,70.9,70.6,30.10,West,271,0.0,0.0,99,0.00,,,0.03,Wunderground v.1.15,2013-07-03 07:28:00,
2013-07-03 03:30:00,70.9,70.6,30.10,West,271,0.0,0.0,99,0.00,,,0.03,Wunderground v.1.15,2013-07-03 07:30:00,
2013-07-03 03:32:00,71.0,70.7,30.10,West,271,0.0,0.0,99,0.00,,,0.03,Wunderground v.1.15,2013-07-03 07:32:00,
2013-07-03 03:34:00,70.9,70.6,30.10,West,271,0.0,0.0,99,0.00,,,0.03,Wunderground v.1.15,2013-07-03 07:34:00,
2013-07-03 03:35:00,71.0,70.7,30.10,West,271,0.0,0.0,99,0.00,,,0.03,Wunderground v.1.15,2013-07-03 07:35:00,
2013-07-03 03:36:00,70.9,70.6,30.10,West,271,0.0,0.0,99,0.00,,,0.03,Wunderground v.1.15,2013-07-03 07:36:00,
2013-07-03 03:37:00,70.9,70.6,30.10,West,270,0.0,0.0,99,0.00,,,0.03,Wunderground v.1.15,2013-07-03 07:37:00,
2013-07-03 03:40:00,71.0,70.7,30.10,West,271,0.0,0.0,99,0.00,,,0.03,Wunderground v.1.15,2013-07-03 07:40:00,
2013-07-03 03:41:00,70.9,70.6,30.10,West,271,0.0,0.0,99,0.00,,,0.03,Wunderground v.1.15,2013-07-03 07:41:00,
2013-07-03 03:42:00,71.0,70.7,30.10,West,271,0.0,0.0,99,0.00,,,0.03,Wunderground v.1.15,2013-07-03 07:42:00,
2013-07-03 03:45:00,71.0,70.7,30.10,West,271,0.0,0.0,99,0.00,,,0.03,Wunderground v.1.15,2013-07-03 07:45:00,
2013-07-03 03:47:00,71.0,70.7,30.10,West,271,0.0,0.0,99,0.00,,,0.03,Wunderground v.1.15,2013-07-03 07:47:00,
2013-07-03 03:48:00,70.9,70.6,30.10,West,271,0.0,0.0,99,0.00,,,0.03,Wunderground v.1.15,2013-07-03 07:48:00,
2013-07-03 03:50:00,70.9,70.6,30.10,West,271,0.0,0.0,99,0.00,,,0.03,Wunderground v.1.15,2013-07-03 07:50:00,
2013-07-03 03:51:00,70.9,70.6,30.10,West,271,0.0,0.0,99,0.00,,,0.03,Wunderground v.1.15,2013-07-03 07:51:00,
2013-07-03 03:53:00,70.9,70.6,30.10,West,270,0.0,0.0,99,0.00,,,0.03,Wunderground v.1.15,2013-07-03 07:53:00,
2013-07-03 03:56:00,70.9,70.6,30.10,West,271,0.0,0.0,99,0.00,,,0.03,Wunderground v.1.15,2013-07-03 07:56:00,
2013-07-03 03:58:00,70.9,70.6,30.10,West,271,0.0,0.0,99,0.00,,,0.03,Wunderground v.1.15,2013-07-03 07:58:00,
2013-07-03 04:01:00,70.9,70.6,30.10,West,271,0.0,0.0,99,0.00,,,0.03,Wunderground v.1.15,2013-07-03 08:01:00,
2013-07-03 04:02:00,70.9,70.6,30.10,West,270,0.0,0.0,99,0.00,,,0.03,Wunderground v.1.15,2013-07-03 08:02:00,
2013-07-03 04:03:00,70.9,70.6,30.10,West,271,0.0,0.0,99,0.00,,,0.03,Wunderground v.1.15,2013-07-03 08:03:00,
2013-07-03 04:06:00,71.0,70.7,30.10,West,271,0.0,0.0,99,0.00,,,0.03,Wunderground v.1.15,2013-07-03 08:06:00,
2013-07-03 04:09:00,70.9,70.6,30.10,West,271,0.0,0.0,99,0.00,,,0.03,Wunderground v.1.15,2013-07-03 08:09:00,
2013-07-03 04:12:00,71.0,70.7,30.10,West,271,0.0,0.0,99,0.00,,,0.03,Wunderground v.1.15,2013-07-03 08:12:00,
2013-07-03 04:14:00,71.0,70.7,30.10,West,271,0.0,0.0,99,0.00,,,0.03,Wunderground v.1.15,2013-07-03 08:14:00,
2013-07-03 04:15:00,71.0,70.7,30.10,West,270,0.0,0.0,99,0.00,,,0.03,Wunderground v.1.15,2013-07-03 08:15:00,
2013-07-03 04:16:00,71.0,70.7,30.10,West,271,0.0,0.0,99,0.00,,,0.03,Wunderground v.1.15,2013-07-03 08:16:00,
2013-07-03 04:17:00,71.0,70.7,30.10,West,271,0.0,0.0,99,0.00,,,0.03,Wunderground v.1.15,2013-07-03 08:17:00,
2013-07-03 04:18:00,71.0,70.7,30.10,West,271,0.0,0.0,99,0.00,,,0.03,Wunderground v.1.15,2013-07-03 08:18:00,
2013-07-03 04:20:00,70.9,70.6,30.10,West,271,0.0,0.0,99,0.00,,,0.04,Wunderground v.1.15,2013-07-03 08:20:00,
2013-07-03 04:21:00,70.9,70.6,30.10,West,270,0.0,0.0,99,0.00,,,0.04,Wunderground v.1.15,2013-07-03 08:21:00,
2013-07-03 04:22:00,70.9,70.6,30.10,West,270,0.0,0.0,99,0.00,,,0.04,Wunderground v.1.15,2013-07-03 08:22:00,
2013-07-03 04:24:00,70.9,70.6,30.10,West,271,0.0,0.0,99,0.00,,,0.04,Wunderground v.1.15,2013-07-03 08:24:00,
2013-07-03 04:25:00,70.9,70.6,30.10,West,271,0.0,0.0,99,0.00,,,0.04,Wunderground v.1.15,2013-07-03 08:25:00,
2013-07-03 04:27:00,70.9,70.6,30.10,West,271,0.0,0.0,99,0.00,,,0.04,Wunderground v.1.15,2013-07-03 08:27:00,
2013-07-03 04:29:00,70.9,70.6,30.10,West,271,0.0,0.0,99,0.00,,,0.04,Wunderground v.1.15,2013-07-03 08:29:00,
2013-07-03 04:32:00,70.9,70.6,30.10,West,271,0.0,0.0,99,0.00,,,0.04,Wunderground v.1.15,2013-07-03 08:32:00,
2013-07-03 04:35:00,71.0,70.7,30.10,West,271,0.0,0.0,99,0.00,,,0.04,Wunderground v.1.15,2013-07-03 08:35:00,
2013-07-03 04:37:00,70.9,70.6,30.10,West,271,0.0,0.0,99,0.00,,,0.04,Wunderground v.1.15,2013-07-03 08:37:00,
2013-07-03 04:39:00,70.9,70.6,30.10,West,271,0.0,0.0,99,0.00,,,0.04,Wunderground v.1.15,2013-07-03 08:39:00,
2013-07-03 04:41:00,70.9,70.6,30.11,West,271,0.0,0.0,99,0.00,,,0.04,Wunderground v.1.15,2013-07-03 08:41:00,
2013-07-03 04:42:00,71.0,70.7,30.11,West,271,0.0,0.0,99,0.00,,,0.04,Wunderground v.1.15,2013-07-03 08:42:00,
2013-07-03 04:45:00,71.0,70.7,30.11,West,271,0.0,0.0,99,0.00,,,0.04,Wunderground v.1.15,2013-07-03 08:45:00,
2013-07-03 04:46:00,71.0,70.7,30.11,West,271,0.0,0.0,99,0.00,,,0.04,Wunderground v.1.15,2013-07-03 08:46:00,
2013-07-03 04:50:00,71.0,70.7,30.11,West,271,0.0,0.0,99,0.00,,,0.04,Wunderground v.1.15,2013-07-03 08:50:00,
2013-07-03 04:51:00,71.0,70.7,30.11,West,271,0.0,0.0,99,0.00,,,0.04,Wunderground v.1.15,2013-07-03 08:51:00,
2013-07-03 04:54:00,71.0,70.7,30.11,West,271,0.0,0.0,99,0.00,,,0.04,Wunderground v.1.15,2013-07-03 08:54:00,
2013-07-03 04:55:00,71.0,70.7,30.11,West,271,0.0,0.0,99,0.00,,,0.04,Wunderground v.1.15,2013-07-03 08:55:00,
2013-07-03 04:57:00,71.0,70.7,30.11,West,271,0.0,0.0,99,0.00,,,0.04,Wunderground v.1.15,2013-07-03 08:57:00,
2013-07-03 04:59:00,71.0,70.7,30.11,West,271,0.0,0.0,99,0.00,,,0.04,Wunderground v.1.15,2013-07-03 08:59:00,
2013-07-03 05:00:00,71.0,70.7,30.11,West,271,0.0,0.0,99,0.00,,,0.04,Wunderground v.1.15,2013-07-03 09:00:00,
2013-07-03 05:01:00,71.0,70.7,30.11,West,271,0.0,0.0,99,0.00,,,0.04,Wunderground v.1.15,2013-07-03 09:01:00,
2013-07-03 05:03:00,71.0,70.7,30.11,West,271,0.0,0.0,99,0.00,,,0.04,Wunderground v.1.15,2013-07-03 09:03:00,
2013-07-03 05:05:00,71.0,70.7,30.11,West,271,0.0,0.0,99,0.00,,,0.04,Wunderground v.1.15,2013-07-03 09:05:00,
2013-07-03 05:06:00,71.1,70.8,30.11,West,271,0.0,0.0,99,0.00,,,0.04,Wunderground v.1.15,2013-07-03 09:06:00,
2013-07-03 05:09:00,71.0,70.7,30.11,West,271,0.0,0.0,99,0.00,,,0.04,Wunderground v.1.15,2013-07-03 09:09:00,
2013-07-03 05:11:00,71.1,70.8,30.11,West,271,0.0,0.0,99,0.00,,,0.04,Wunderground v.1.15,2013-07-03 09:11:00,
2013-07-03 05:15:00,71.1,70.8,30.11,West,270,0.0,0.0,99,0.00,,,0.04,Wunderground v.1.15,2013-07-03 09:15:00,
2013-07-03 05:16:00,71.1,70.8,30.11,West,271,0.0,0.0,99,0.00,,,0.04,Wunderground v.1.15,2013-07-03 09:16:00,
2013-07-03 05:17:00,71.1,70.8,30.11,West,271,0.0,0.0,99,0.00,,,0.04,Wunderground v.1.15,2013-07-03 09:17:00,
2013-07-03 05:18:00,71.1,70.8,30.11,West,271,0.0,0.0,99,0.00,,,0.04,Wunderground v.1.15,2013-07-03 09:18:00,
2013-07-03 05:20:00,71.1,70.8,30.11,West,271,0.0,0.0,99,0.00,,,0.04,Wunderground v.1.15,2013-07-03 09:20:00,
2013-07-03 05:21:00,71.1,70.8,30.11,West,271,0.0,0.0,99,0.00,,,0.04,Wunderground v.1.15,2013-07-03 09:21:00,
2013-07-03 05:22:00,71.1,70.8,30.11,West,271,0.0,0.0,99,0.00,,,0.04,Wunderground v.1.15,2013-07-03 09:22:00,
2013-07-03 05:23:00,71.1,70.8,30.11,West,271,0.0,0.0,99,0.00,,,0.04,Wunderground v.1.15,2013-07-03 09:23:00,
2013-07-03 05:26:00,71.2,70.9,30.11,West,271,0.0,0.0,99,0.00,,,0.04,Wunderground v.1.15,2013-07-03 09:26:00,
2013-07-03 05:27:00,71.2,70.9,30.11,West,271,0.0,0.0,99,0.00,,,0.04,Wunderground v.1.15,2013-07-03 09:27:00,
2013-07-03 05:28:00,71.2,70.9,30.11,West,271,0.0,0.0,99,0.00,,,0.04,Wunderground v.1.15,2013-07-03 09:28:00,
2013-07-03 05:31:00,71.2,70.9,30.11,West,271,0.0,0.0,99,0.00,,,0.04,Wunderground v.1.15,2013-07-03 09:31:00,
2013-07-03 05:33:00,71.2,70.9,30.12,West,272,0.0,0.0,99,0.00,,,0.04,Wunderground v.1.15,2013-07-03 09:33:00,
2013-07-03 05:35:00,71.2,70.9,30.12,West,271,0.0,0.0,99,0.00,,,0.04,Wunderground v.1.15,2013-07-03 09:35:00,
2013-07-03 05:39:00,71.2,70.9,30.12,NW,311,0.0,0.0,99,0.00,,,0.04,Wunderground v.1.15,2013-07-03 09:39:00,
2013-07-03 05:41:00,71.3,71.0,30.12,NW,311,0.0,0.0,99,0.00,,,0.04,Wunderground v.1.15,2013-07-03 09:41:00,
2013-07-03 05:44:00,71.2,70.9,30.12,NW,311,0.0,0.0,99,0.00,,,0.04,Wunderground v.1.15,2013-07-03 09:44:00,
2013-07-03 05:45:00,71.2,70.9,30.12,NW,311,0.0,0.0,99,0.00,,,0.04,Wunderground v.1.15,2013-07-03 09:45:00,
2013-07-03 05:46:00,71.2,70.9,30.12,NW,312,0.0,0.0,99,0.00,,,0.04,Wunderground v.1.15,2013-07-03 09:46:00,
2013-07-03 05:47:00,71.2,70.9,30.12,NW,311,0.0,0.0,99,0.00,,,0.04,Wunderground v.1.15,2013-07-03 09:47:00,
2013-07-03 05:49:00,71.3,71.0,30.12,NW,311,0.0,0.0,99,0.00,,,0.04,Wunderground v.1.15,2013-07-03 09:49:00,
2013-07-03 05:50:00,71.3,71.0,30.12,WNW,297,0.0,0.0,99,0.00,,,0.04,Wunderground v.1.15,2013-07-03 09:50:00,
2013-07-03 05:51:00,71.3,71.0,30.12,WNW,297,0.0,0.0,99,0.00,,,0.04,Wunderground v.1.15,2013-07-03 09:51:00,
2013-07-03 05:54:00,71.3,71.0,30.12,WNW,297,0.0,0.0,99,0.00,,,0.04,Wunderground v.1.15,2013-07-03 09:54:00,
2013-07-03 05:56:00,71.3,71.0,30.12,WNW,297,0.0,0.0,99,0.00,,,0.04,Wunderground v.1.15,2013-07-03 09:56:00,
2013-07-03 05:59:00,71.4,71.1,30.12,WNW,297,0.0,0.0,99,0.00,,,0.04,Wunderground v.1.15,2013-07-03 09:59:00,
2013-07-03 06:00:00,71.3,71.0,30.13,WNW,297,0.0,0.0,99,0.00,,,0.04,Wunderground v.1.15,2013-07-03 10:00:00,
2013-07-03 06:01:00,71.3,71.0,30.13,WNW,297,0.0,0.0,99,0.00,,,0.04,Wunderground v.1.15,2013-07-03 10:01:00,
2013-07-03 06:04:00,71.4,71.1,30.13,WNW,297,0.0,0.0,99,0.00,,,0.04,Wunderground v.1.15,2013-07-03 10:04:00,
2013-07-03 06:06:00,71.4,71.1,30.13,WNW,297,0.0,0.0,99,0.00,,,0.04,Wunderground v.1.15,2013-07-03 10:06:00,
2013-07-03 06:07:00,71.4,71.1,30.13,WNW,297,0.0,0.0,99,0.00,,,0.04,Wunderground v.1.15,2013-07-03 10:07:00,
2013-07-03 06:09:00,71.4,71.1,30.13,WNW,297,0.0,0.0,99,0.00,,,0.04,Wunderground v.1.15,2013-07-03 10:09:00,
2013-07-03 06:11:00,71.4,71.1,30.13,WNW,297,0.0,0.0,99,0.00,,,0.04,Wunderground v.1.15,2013-07-03 10:11:00,
2013-07-03 06:12:00,71.4,71.1,30.13,WNW,297,0.0,0.0,99,0.00,,,0.04,Wunderground v.1.15,2013-07-03 10:12:00,
2013-07-03 06:15:00,71.4,71.1,30.13,WNW,297,0.0,0.0,99,0.00,,,0.04,Wunderground v.1.15,2013-07-03 10:15:00,
2013-07-03 06:17:00,71.4,71.1,30.13,WNW,297,0.0,0.0,99,0.00,,,0.04,Wunderground v.1.15,2013-07-03 10:17:00,
2013-07-03 06:20:00,71.4,71.1,30.13,WNW,297,0.0,0.0,99,0.00,,,0.04,Wunderground v.1.15,2013-07-03 10:20:00,
2013-07-03 06:21:00,71.4,71.1,30.13,WNW,297,0.0,0.0,99,0.00,,,0.04,Wunderground v.1.15,2013-07-03 10:21:00,
2013-07-03 06:22:00,71.4,71.1,30.13,WNW,297,0.0,0.0,99,0.00,,,0.04,Wunderground v.1.15,2013-07-03 10:22:00,
2013-07-03 06:26:00,71.4,71.1,30.13,WNW,297,0.0,0.0,99,0.00,,,0.04,Wunderground v.1.15,2013-07-03 10:26:00,
2013-07-03 06:27:00,71.4,71.1,30.13,WNW,297,0.0,0.0,99,0.00,,,0.04,Wunderground v.1.15,2013-07-03 10:27:00,
2013-07-03 06:29:00,71.4,71.1,30.14,WNW,297,0.0,0.0,99,0.00,,,0.04,Wunderground v.1.15,2013-07-03 10:29:00,
2013-07-03 06:31:00,71.4,71.1,30.13,WNW,297,0.0,0.0,99,0.00,,,0.04,Wunderground v.1.15,2013-07-03 10:31:00,
2013-07-03 06:32:00,71.4,71.1,30.13,WNW,297,0.0,0.0,99,0.00,,,0.04,Wunderground v.1.15,2013-07-03 10:32:00,
2013-07-03 06:33:00,71.4,71.1,30.13,WNW,297,0.0,0.0,99,0.00,,,0.04,Wunderground v.1.15,2013-07-03 10:33:00,
2013-07-03 06:35:00,71.4,71.1,30.14,WNW,297,0.0,0.0,99,0.00,,,0.04,Wunderground v.1.15,2013-07-03 10:35:00,
2013-07-03 06:36:00,71.4,71.1,30.14,WNW,297,0.0,0.0,99,0.00,,,0.04,Wunderground v.1.15,2013-07-03 10:36:00,
2013-07-03 06:37:00,71.4,71.1,30.14,WNW,297,0.0,0.0,99,0.00,,,0.04,Wunderground v.1.15,2013-07-03 10:37:00,
2013-07-03 06:38:00,71.4,71.1,30.14,WNW,297,0.0,0.0,99,0.00,,,0.04,Wunderground v.1.15,2013-07-03 10:38:00,
2013-07-03 06:40:00,71.4,71.1,30.14,WNW,297,0.0,0.0,99,0.00,,,0.04,Wunderground v.1.15,2013-07-03 10:40:00,
2013-07-03 06:41:00,71.4,71.1,30.14,WNW,297,0.0,0.0,99,0.00,,,0.04,Wunderground v.1.15,2013-07-03 10:41:00,
2013-07-03 06:42:00,71.4,71.1,30.14,WNW,297,0.0,0.0,99,0.00,,,0.04,Wunderground v.1.15,2013-07-03 10:42:00,
2013-07-03 06:44:00,71.4,71.1,30.14,WNW,297,0.0,0.0,99,0.00,,,0.04,Wunderground v.1.15,2013-07-03 10:44:00,
2013-07-03 06:45:00,71.4,71.1,30.14,WNW,297,0.0,0.0,99,0.00,,,0.04,Wunderground v.1.15,2013-07-03 10:45:00,
2013-07-03 06:47:00,71.4,71.1,30.14,WNW,297,0.0,0.0,99,0.00,,,0.04,Wunderground v.1.15,2013-07-03 10:47:00,
2013-07-03 06:49:00,71.4,71.1,30.14,WNW,297,0.0,0.0,99,0.00,,,0.04,Wunderground v.1.15,2013-07-03 10:49:00,
2013-07-03 06:50:00,71.4,71.1,30.15,WNW,297,0.0,0.0,99,0.00,,,0.04,Wunderground v.1.15,2013-07-03 10:50:00,
2013-07-03 06:53:00,71.4,71.1,30.15,WNW,297,0.0,0.0,99,0.00,,,0.04,Wunderground v.1.15,2013-07-03 10:53:00,
2013-07-03 06:54:00,71.4,71.1,30.15,WNW,297,0.0,0.0,99,0.00,,,0.04,Wunderground v.1.15,2013-07-03 10:54:00,
2013-07-03 06:55:00,71.4,71.1,30.14,WNW,297,0.0,0.0,99,0.00,,,0.04,Wunderground v.1.15,2013-07-03 10:55:00,
2013-07-03 06:58:00,71.4,71.1,30.15,WNW,297,0.0,0.0,99,0.00,,,0.04,Wunderground v.1.15,2013-07-03 10:58:00,
2013-07-03 06:59:00,71.4,71.1,30.15,WNW,297,0.0,0.0,99,0.00,,,0.04,Wunderground v.1.15,2013-07-03 10:59:00,
2013-07-03 07:01:00,71.4,71.1,30.15,WNW,297,0.0,0.0,99,0.00,,,0.04,Wunderground v.1.15,2013-07-03 11:01:00,
2013-07-03 07:04:00,71.4,71.1,30.15,WNW,297,0.0,0.0,99,0.00,,,0.04,Wunderground v.1.15,2013-07-03 11:04:00,
2013-07-03 07:09:00,71.4,71.1,30.15,WNW,297,0.0,0.0,99,0.00,,,0.04,Wunderground v.1.15,2013-07-03 11:09:00,
2013-07-03 07:10:00,71.4,71.1,30.15,WNW,297,0.0,0.0,99,0.00,,,0.04,Wunderground v.1.15,2013-07-03 11:10:00,
2013-07-03 07:14:00,71.4,71.1,30.15,WNW,297,0.0,0.0,99,0.00,,,0.04,Wunderground v.1.15,2013-07-03 11:14:00,
2013-07-03 07:15:00,71.4,71.1,30.15,WNW,297,0.0,0.0,99,0.00,,,0.04,Wunderground v.1.15,2013-07-03 11:15:00,
2013-07-03 07:19:00,71.5,71.2,30.15,WNW,297,0.0,0.0,99,0.00,,,0.04,Wunderground v.1.15,2013-07-03 11:19:00,
2013-07-03 07:20:00,71.5,71.2,30.15,WNW,297,0.0,0.0,99,0.00,,,0.04,Wunderground v.1.15,2013-07-03 11:20:00,
2013-07-03 07:21:00,71.4,71.1,30.15,WNW,297,0.0,0.0,99,0.00,,,0.04,Wunderground v.1.15,2013-07-03 11:21:00,
2013-07-03 07:22:00,71.4,71.1,30.15,WNW,297,0.0,0.0,99,0.00,,,0.04,Wunderground v.1.15,2013-07-03 11:22:00,
2013-07-03 07:23:00,71.5,71.2,30.15,WNW,297,0.0,0.0,99,0.00,,,0.04,Wunderground v.1.15,2013-07-03 11:23:00,
2013-07-03 07:25:00,71.4,71.1,30.16,WNW,297,0.0,0.0,99,0.00,,,0.04,Wunderground v.1.15,2013-07-03 11:25:00,
2013-07-03 07:27:00,71.4,71.1,30.16,WNW,297,0.0,0.0,99,0.00,,,0.04,Wunderground v.1.15,2013-07-03 11:27:00,
2013-07-03 07:30:00,71.4,71.1,30.16,WNW,297,0.0,0.0,99,0.00,,,0.04,Wunderground v.1.15,2013-07-03 11:30:00,
2013-07-03 07:32:00,71.4,71.1,30.16,WNW,297,0.0,0.0,99,0.00,,,0.04,Wunderground v.1.15,2013-07-03 11:32:00,
2013-07-03 07:33:00,71.4,71.1,30.16,WNW,297,0.0,0.0,99,0.00,,,0.04,Wunderground v.1.15,2013-07-03 11:33:00,
2013-07-03 07:35:00,71.4,71.1,30.16,WNW,297,0.0,0.0,99,0.00,,,0.04,Wunderground v.1.15,2013-07-03 11:35:00,
2013-07-03 07:36:00,71.4,71.1,30.16,WNW,297,0.0,0.0,99,0.00,,,0.04,Wunderground v.1.15,2013-07-03 11:36:00,
2013-07-03 07:37:00,71.4,71.1,30.16,WNW,297,0.0,0.0,99,0.00,,,0.04,Wunderground v.1.15,2013-07-03 11:37:00,
2013-07-03 07:38:00,71.5,71.2,30.16,WNW,297,0.0,0.0,99,0.00,,,0.04,Wunderground v.1.15,2013-07-03 11:38:00,
2013-07-03 07:42:00,71.5,71.2,30.16,WNW,296,0.0,0.0,99,0.00,,,0.04,Wunderground v.1.15,2013-07-03 11:42:00,
2013-07-03 07:44:00,71.5,71.2,30.16,WNW,297,0.0,0.0,99,0.00,,,0.05,Wunderground v.1.15,2013-07-03 11:44:00,
2013-07-03 07:45:00,71.5,71.2,30.16,WNW,297,0.0,0.0,99,0.00,,,0.05,Wunderground v.1.15,2013-07-03 11:45:00,
2013-07-03 07:47:00,71.5,71.2,30.16,NW,319,0.0,0.0,99,0.00,,,0.05,Wunderground v.1.15,2013-07-03 11:47:00,
2013-07-03 07:50:00,71.5,71.2,30.17,NW,319,0.0,0.0,99,0.00,,,0.05,Wunderground v.1.15,2013-07-03 11:50:00,
2013-07-03 07:53:00,71.5,71.2,30.16,NW,319,0.0,0.0,99,0.00,,,0.05,Wunderground v.1.15,2013-07-03 11:53:00,
2013-07-03 07:55:00,71.6,71.3,30.16,NW,319,0.0,0.0,99,0.00,,,0.05,Wunderground v.1.15,2013-07-03 11:55:00,
2013-07-03 07:56:00,71.6,71.3,30.16,NW,319,0.0,0.0,99,0.00,,,0.05,Wunderground v.1.15,2013-07-03 11:56:00,
2013-07-03 07:58:00,71.6,71.3,30.17,NW,319,0.0,0.0,99,0.00,,,0.05,Wunderground v.1.15,2013-07-03 11:58:00,
2013-07-03 08:01:00,71.6,71.3,30.17,NW,319,0.0,0.0,99,0.00,,,0.05,Wunderground v.1.15,2013-07-03 12:01:00,
2013-07-03 08:02:00,71.6,71.3,30.17,NW,319,0.0,0.0,99,0.00,,,0.05,Wunderground v.1.15,2013-07-03 12:02:00,
2013-07-03 08:04:00,71.7,71.4,30.17,NW,319,0.0,0.0,99,0.00,,,0.05,Wunderground v.1.15,2013-07-03 12:04:00,
2013-07-03 08:07:00,71.7,71.4,30.17,NW,319,0.0,0.0,99,0.00,,,0.05,Wunderground v.1.15,2013-07-03 12:07:00,
2013-07-03 08:08:00,71.7,71.4,30.17,NW,319,0.0,0.0,99,0.00,,,0.05,Wunderground v.1.15,2013-07-03 12:08:00,
2013-07-03 08:09:00,71.8,71.5,30.17,NW,319,0.0,0.0,99,0.00,,,0.05,Wunderground v.1.15,2013-07-03 12:09:00,
2013-07-03 08:12:00,71.9,71.6,30.17,NW,319,0.0,0.0,99,0.00,,,0.06,Wunderground v.1.15,2013-07-03 12:12:00,
2013-07-03 08:13:00,71.9,71.6,30.17,NW,319,0.0,0.0,99,0.00,,,0.06,Wunderground v.1.15,2013-07-03 12:13:00,
2013-07-03 08:14:00,72.0,72.0,30.17,NW,319,0.0,0.0,100,0.00,,,0.06,Wunderground v.1.15,2013-07-03 12:14:00,
2013-07-03 08:16:00,72.1,72.1,30.17,NW,319,0.0,0.0,100,0.00,,,0.06,Wunderground v.1.15,2013-07-03 12:16:00,
2013-07-03 08:18:00,72.2,72.2,30.17,NW,319,0.0,0.0,100,0.00,,,0.06,Wunderground v.1.15,2013-07-03 12:18:00,
2013-07-03 08:19:00,72.2,72.2,30.17,NW,319,0.0,0.0,100,0.00,,,0.06,Wunderground v.1.15,2013-07-03 12:19:00,
2013-07-03 08:20:00,72.2,72.2,30.17,NW,319,0.0,0.0,100,0.00,,,0.06,Wunderground v.1.15,2013-07-03 12:20:00,
2013-07-03 08:21:00,72.2,71.9,30.17,NW,319,0.0,0.0,99,0.00,,,0.06,Wunderground v.1.15,2013-07-03 12:21:00,
2013-07-03 08:24:00,72.2,71.9,30.17,NW,319,0.0,0.0,99,0.00,,,0.06,Wunderground v.1.15,2013-07-03 12:24:00,
2013-07-03 08:26:00,72.3,72.0,30.17,NW,319,0.0,0.0,99,0.00,,,0.06,Wunderground v.1.15,2013-07-03 12:26:00,
2013-07-03 08:27:00,72.3,72.0,30.17,NW,319,0.0,0.0,99,0.00,,,0.06,Wunderground v.1.15,2013-07-03 12:27:00,
2013-07-03 08:30:00,72.3,72.0,30.17,NW,319,0.0,0.0,99,0.00,,,0.06,Wunderground v.1.15,2013-07-03 12:30:00,
2013-07-03 08:32:00,72.4,72.1,30.17,NW,319,0.0,0.0,99,0.00,,,0.06,Wunderground v.1.15,2013-07-03 12:32:00,
2013-07-03 08:35:00,72.5,72.2,30.17,NW,319,0.0,0.0,99,0.00,,,0.06,Wunderground v.1.15,2013-07-03 12:35:00,
2013-07-03 08:36:00,72.5,72.2,30.17,NW,319,0.0,0.0,99,0.00,,,0.06,Wunderground v.1.15,2013-07-03 12:36:00,
2013-07-03 08:37:00,72.5,72.2,30.17,NW,319,0.0,0.0,99,0.00,,,0.06,Wunderground v.1.15,2013-07-03 12:37:00,
2013-07-03 08:38:00,72.5,72.2,30.17,NW,319,0.0,0.0,99,0.00,,,0.06,Wunderground v.1.15,2013-07-03 12:38:00,
2013-07-03 08:41:00,72.6,72.3,30.17,NW,319,0.0,0.0,99,0.00,,,0.06,Wunderground v.1.15,2013-07-03 12:41:00,
2013-07-03 08:42:00,72.6,72.3,30.17,NW,319,0.0,0.0,99,0.00,,,0.06,Wunderground v.1.15,2013-07-03 12:42:00,
2013-07-03 08:43:00,72.7,72.4,30.17,NW,319,0.0,0.0,99,0.00,,,0.06,Wunderground v.1.15,2013-07-03 12:43:00,
2013-07-03 08:46:00,72.6,72.3,30.17,NW,319,0.0,0.0,99,0.00,,,0.06,Wunderground v.1.15,2013-07-03 12:46:00,
2013-07-03 08:47:00,72.6,72.3,30.17,NW,319,0.0,0.0,99,0.00,,,0.06,Wunderground v.1.15,2013-07-03 12:47:00,
2013-07-03 08:49:00,72.6,72.3,30.17,NW,319,0.0,0.0,99,0.00,,,0.06,Wunderground v.1.15,2013-07-03 12:49:00,
2013-07-03 08:51:00,72.6,72.3,30.18,NW,319,0.0,0.0,99,0.00,,,0.06,Wunderground v.1.15,2013-07-03 12:51:00,
2013-07-03 08:53:00,72.5,72.2,30.18,WNW,287,0.0,2.0,99,0.00,,,0.06,Wunderground v.1.15,2013-07-03 12:53:00,
2013-07-03 08:54:00,72.5,72.2,30.18,WNW,287,0.0,2.0,99,0.00,,,0.06,Wunderground v.1.15,2013-07-03 12:54:00,
2013-07-03 08:57:00,72.5,72.2,30.18,WNW,287,0.0,2.0,99,0.00,,,0.06,Wunderground v.1.15,2013-07-03 12:57:00,
2013-07-03 08:58:00,72.5,72.2,30.18,WNW,287,0.0,2.0,99,0.00,,,0.06,Wunderground v.1.15,2013-07-03 12:58:00,
2013-07-03 09:00:00,72.5,72.2,30.18,WNW,286,0.0,0.0,99,0.00,,,0.06,Wunderground v.1.15,2013-07-03 13:00:00,
2013-07-03 09:02:00,72.5,72.2,30.18,WNW,284,0.0,0.0,99,0.00,,,0.06,Wunderground v.1.15,2013-07-03 13:02:00,
2013-07-03 09:04:00,72.5,72.2,30.18,WNW,284,0.0,0.0,99,0.00,,,0.06,Wunderground v.1.15,2013-07-03 13:04:00,
2013-07-03 09:06:00,72.6,72.3,30.18,WNW,284,0.0,0.0,99,0.00,,,0.06,Wunderground v.1.15,2013-07-03 13:06:00,
2013-07-03 09:08:00,72.6,72.3,30.18,WNW,284,0.0,0.0,99,0.00,,,0.06,Wunderground v.1.15,2013-07-03 13:08:00,
2013-07-03 09:09:00,72.6,72.3,30.18,WNW,285,0.0,0.0,99,0.00,,,0.06,Wunderground v.1.15,2013-07-03 13:09:00,
2013-07-03 09:11:00,72.6,72.3,30.18,WNW,284,0.0,0.0,99,0.00,,,0.06,Wunderground v.1.15,2013-07-03 13:11:00,
2013-07-03 09:14:00,72.7,72.4,30.18,WNW,283,0.0,0.0,99,0.00,,,0.06,Wunderground v.1.15,2013-07-03 13:14:00,
2013-07-03 09:16:00,72.9,72.6,30.18,WNW,284,0.0,0.0,99,0.00,,,0.06,Wunderground v.1.15,2013-07-03 13:16:00,
2013-07-03 09:19:00,72.9,72.6,30.18,WNW,284,0.0,0.0,99,0.00,,,0.06,Wunderground v.1.15,2013-07-03 13:19:00,
2013-07-03 09:20:00,73.0,72.7,30.18,WNW,284,0.0,0.0,99,0.00,,,0.06,Wunderground v.1.15,2013-07-03 13:20:00,
2013-07-03 09:21:00,72.9,72.6,30.18,WNW,284,0.0,0.0,99,0.00,,,0.06,Wunderground v.1.15,2013-07-03 13:21:00,
2013-07-03 09:25:00,73.0,72.7,30.18,WNW,284,0.0,0.0,99,0.00,,,0.06,Wunderground v.1.15,2013-07-03 13:25:00,
2013-07-03 09:26:00,73.0,72.7,30.18,WNW,284,0.0,0.0,99,0.00,,,0.06,Wunderground v.1.15,2013-07-03 13:26:00,
2013-07-03 09:27:00,73.1,72.8,30.18,WNW,284,0.0,0.0,99,0.00,,,0.06,Wunderground v.1.15,2013-07-03 13:27:00,
2013-07-03 09:30:00,73.1,72.8,30.18,WNW,284,0.0,0.0,99,0.00,,,0.06,Wunderground v.1.15,2013-07-03 13:30:00,
2013-07-03 09:31:00,73.1,72.8,30.18,WNW,284,0.0,0.0,99,0.00,,,0.06,Wunderground v.1.15,2013-07-03 13:31:00,
2013-07-03 09:32:00,73.1,72.8,30.18,WNW,284,0.0,0.0,99,0.00,,,0.06,Wunderground v.1.15,2013-07-03 13:32:00,
2013-07-03 09:35:00,73.3,73.0,30.18,WNW,284,0.0,0.0,99,0.00,,,0.06,Wunderground v.1.15,2013-07-03 13:35:00,
2013-07-03 09:37:00,73.4,73.1,30.17,WNW,284,0.0,0.0,99,0.00,,,0.06,Wunderground v.1.15,2013-07-03 13:37:00,
2013-07-03 09:38:00,73.4,73.1,30.17,WNW,284,0.0,0.0,99,0.00,,,0.06,Wunderground v.1.15,2013-07-03 13:38:00,
2013-07-03 09:41:00,73.5,73.2,30.17,WNW,284,0.0,0.0,99,0.00,,,0.06,Wunderground v.1.15,2013-07-03 13:41:00,
2013-07-03 09:42:00,73.5,73.2,30.17,WNW,284,0.0,0.0,99,0.00,,,0.06,Wunderground v.1.15,2013-07-03 13:42:00,
2013-07-03 09:43:00,73.5,73.2,30.17,WNW,284,0.0,0.0,99,0.00,,,0.06,Wunderground v.1.15,2013-07-03 13:43:00,
2013-07-03 09:45:00,73.5,73.2,30.17,WNW,284,0.0,0.0,99,0.00,,,0.06,Wunderground v.1.15,2013-07-03 13:45:00,
2013-07-03 09:47:00,73.6,73.3,30.17,WSW,255,0.0,0.0,99,0.00,,,0.06,Wunderground v.1.15,2013-07-03 13:47:00,
2013-07-03 09:49:00,73.7,73.4,30.17,WSW,255,0.0,0.0,99,0.00,,,0.07,Wunderground v.1.15,2013-07-03 13:49:00,
2013-07-03 09:50:00,73.8,73.5,30.17,WSW,255,0.0,0.0,99,0.00,,,0.07,Wunderground v.1.15,2013-07-03 13:50:00,
2013-07-03 09:53:00,73.8,73.5,30.17,WSW,255,0.0,0.0,99,0.00,,,0.07,Wunderground v.1.15,2013-07-03 13:53:00,
2013-07-03 09:54:00,73.8,73.5,30.17,WSW,255,0.0,0.0,99,0.00,,,0.07,Wunderground v.1.15,2013-07-03 13:54:00,
2013-07-03 09:56:00,73.8,73.5,30.17,WSW,255,0.0,0.0,99,0.00,,,0.07,Wunderground v.1.15,2013-07-03 13:56:00,
2013-07-03 09:59:00,73.9,73.6,30.17,WSW,255,0.0,0.0,99,0.00,,,0.07,Wunderground v.1.15,2013-07-03 13:59:00,
2013-07-03 10:04:00,74.0,73.4,30.17,WSW,255,0.0,0.0,98,0.00,,,0.07,Wunderground v.1.15,2013-07-03 14:04:00,
2013-07-03 10:05:00,74.1,73.5,30.17,WSW,254,0.0,0.0,98,0.00,,,0.07,Wunderground v.1.15,2013-07-03 14:05:00,
2013-07-03 10:06:00,74.1,73.5,30.17,WSW,254,0.0,0.0,98,0.00,,,0.07,Wunderground v.1.15,2013-07-03 14:06:00,
2013-07-03 10:07:00,74.1,73.5,30.17,WNW,286,0.0,0.0,98,0.00,,,0.07,Wunderground v.1.15,2013-07-03 14:07:00,
2013-07-03 10:09:00,74.1,73.5,30.17,WNW,286,0.0,0.0,98,0.00,,,0.07,Wunderground v.1.15,2013-07-03 14:09:00,
2013-07-03 10:10:00,74.2,73.6,30.17,WNW,286,0.0,0.0,98,0.00,,,0.07,Wunderground v.1.15,2013-07-03 14:10:00,
2013-07-03 10:11:00,74.2,73.6,30.17,WNW,286,0.0,0.0,98,0.00,,,0.07,Wunderground v.1.15,2013-07-03 14:11:00,
2013-07-03 10:13:00,74.4,73.8,30.17,WNW,286,0.0,0.0,98,0.00,,,0.07,Wunderground v.1.15,2013-07-03 14:13:00,
2013-07-03 10:15:00,74.5,73.9,30.17,WNW,287,0.0,0.0,98,0.00,,,0.07,Wunderground v.1.15,2013-07-03 14:15:00,
2013-07-03 10:16:00,74.5,73.9,30.17,WNW,287,0.0,0.0,98,0.00,,,0.07,Wunderground v.1.15,2013-07-03 14:16:00,
2013-07-03 10:17:00,74.6,74.0,30.17,WNW,287,0.0,0.0,98,0.00,,,0.07,Wunderground v.1.15,2013-07-03 14:17:00,
2013-07-03 10:18:00,74.6,74.0,30.17,WNW,286,0.0,0.0,98,0.00,,,0.07,Wunderground v.1.15,2013-07-03 14:18:00,
2013-07-03 10:22:00,74.8,74.2,30.17,NE,55,0.0,0.0,98,0.00,,,0.07,Wunderground v.1.15,2013-07-03 14:22:00,
2013-07-03 10:23:00,74.8,74.2,30.17,NE,55,0.0,0.0,98,0.00,,,0.07,Wunderground v.1.15,2013-07-03 14:23:00,
2013-07-03 10:27:00,74.9,74.0,30.17,NW,316,0.0,0.0,97,0.00,,,0.07,Wunderground v.1.15,2013-07-03 14:27:00,
2013-07-03 10:28:00,74.9,74.0,30.17,NW,305,0.0,0.0,97,0.00,,,0.07,Wunderground v.1.15,2013-07-03 14:28:00,
2013-07-03 10:30:00,74.9,74.0,30.17,WNW,299,0.0,0.0,97,0.00,,,0.07,Wunderground v.1.15,2013-07-03 14:30:00,
2013-07-03 10:32:00,75.1,74.2,30.17,WNW,299,0.0,0.0,97,0.00,,,0.07,Wunderground v.1.15,2013-07-03 14:32:00,
2013-07-03 10:33:00,75.2,74.3,30.17,WNW,299,0.0,0.0,97,0.00,,,0.07,Wunderground v.1.15,2013-07-03 14:33:00,
2013-07-03 10:34:00,75.2,74.3,30.17,WNW,299,0.0,0.0,97,0.00,,,0.07,Wunderground v.1.15,2013-07-03 14:34:00,
2013-07-03 10:35:00,75.2,74.3,30.17,WNW,300,0.0,0.0,97,0.00,,,0.07,Wunderground v.1.15,2013-07-03 14:35:00,
2013-07-03 10:37:00,75.2,74.0,30.17,NW,305,0.0,0.0,96,0.00,,,0.07,Wunderground v.1.15,2013-07-03 14:37:00,
2013-07-03 10:38:00,75.1,73.9,30.17,NE,36,0.0,0.0,96,0.00,,,0.07,Wunderground v.1.15,2013-07-03 14:38:00,
2013-07-03 10:39:00,75.1,73.9,30.17,East,92,0.0,1.0,96,0.00,,,0.07,Wunderground v.1.15,2013-07-03 14:39:00,
2013-07-03 10:40:00,75.1,73.9,30.17,East,91,0.0,0.0,96,0.00,,,0.07,Wunderground v.1.15,2013-07-03 14:40:00,
2013-07-03 10:41:00,75.1,73.9,30.17,East,91,0.0,0.0,96,0.00,,,0.07,Wunderground v.1.15,2013-07-03 14:41:00,
2013-07-03 10:44:00,75.2,74.0,30.17,East,91,0.0,0.0,96,0.00,,,0.07,Wunderground v.1.15,2013-07-03 14:44:00,
2013-07-03 10:45:00,75.2,74.0,30.17,East,91,0.0,0.0,96,0.00,,,0.07,Wunderground v.1.15,2013-07-03 14:45:00,
2013-07-03 10:47:00,75.2,74.0,30.17,East,91,0.0,0.0,96,0.00,,,0.07,Wunderground v.1.15,2013-07-03 14:47:00,
2013-07-03 10:49:00,75.3,74.1,30.17,East,92,0.0,0.0,96,0.00,,,0.07,Wunderground v.1.15,2013-07-03 14:49:00,
2013-07-03 10:50:00,75.3,74.1,30.17,South,177,0.0,0.0,96,0.00,,,0.07,Wunderground v.1.15,2013-07-03 14:50:00,
2013-07-03 10:51:00,75.4,74.2,30.18,South,177,0.0,0.0,96,0.00,,,0.07,Wunderground v.1.15,2013-07-03 14:51:00,
2013-07-03 10:52:00,75.4,74.2,30.18,South,184,0.0,0.0,96,0.00,,,0.07,Wunderground v.1.15,2013-07-03 14:52:00,
2013-07-03 10:53:00,75.4,74.2,30.18,NNW,342,2.0,2.0,96,0.00,,,0.07,Wunderground v.1.15,2013-07-03 14:53:00,
2013-07-03 10:56:00,75.5,74.0,30.18,North,9,0.0,2.0,95,0.00,,,0.07,Wunderground v.1.15,2013-07-03 14:56:00,
2013-07-03 10:57:00,75.6,74.1,30.18,North,9,0.0,2.0,95,0.00,,,0.07,Wunderground v.1.15,2013-07-03 14:57:00,
2013-07-03 10:58:00,75.7,74.5,30.18,North,8,0.0,2.0,96,0.00,,,0.07,Wunderground v.1.15,2013-07-03 14:58:00,
2013-07-03 10:59:00,75.7,74.2,30.18,WSW,252,0.0,2.0,95,0.00,,,0.07,Wunderground v.1.15,2013-07-03 14:59:00,
2013-07-03 11:03:00,75.6,73.8,30.18,WSW,252,0.0,0.0,94,0.00,,,0.07,Wunderground v.1.15,2013-07-03 15:03:00,
2013-07-03 11:08:00,75.9,74.4,30.18,West,281,0.0,0.0,95,0.00,,,0.07,Wunderground v.1.15,2013-07-03 15:08:00,
2013-07-03 11:09:00,75.9,74.4,30.18,West,281,0.0,0.0,95,0.00,,,0.07,Wunderground v.1.15,2013-07-03 15:09:00,
2013-07-03 11:14:00,76.2,74.3,30.18,SW,218,0.0,4.0,94,0.00,,,0.07,Wunderground v.1.15,2013-07-03 15:14:00,
2013-07-03 11:15:00,76.2,74.3,30.18,West,280,0.0,4.0,94,0.00,,,0.07,Wunderground v.1.15,2013-07-03 15:15:00,
2013-07-03 11:19:00,76.4,74.5,30.18,WNW,295,0.0,4.0,94,0.00,,,0.07,Wunderground v.1.15,2013-07-03 15:19:00,
2013-07-03 11:20:00,76.5,74.6,30.18,WNW,295,0.0,0.0,94,0.00,,,0.07,Wunderground v.1.15,2013-07-03 15:20:00,
2013-07-03 11:21:00,76.5,74.6,30.18,WNW,295,0.0,0.0,94,0.00,,,0.07,Wunderground v.1.15,2013-07-03 15:21:00,
2013-07-03 11:22:00,76.5,74.6,30.18,WNW,295,0.0,0.0,94,0.00,,,0.07,Wunderground v.1.15,2013-07-03 15:22:00,
2013-07-03 11:25:00,76.4,73.9,30.19,NNE,30,0.0,0.0,92,0.00,,,0.07,Wunderground v.1.15,2013-07-03 15:25:00,
2013-07-03 11:27:00,76.5,74.0,30.19,NNE,28,0.0,0.0,92,0.00,,,0.07,Wunderground v.1.15,2013-07-03 15:27:00,
2013-07-03 11:28:00,76.4,73.9,30.19,NNE,28,0.0,0.0,92,0.00,,,0.07,Wunderground v.1.15,2013-07-03 15:28:00,
2013-07-03 11:32:00,76.3,73.8,30.19,WSW,257,0.0,2.0,92,0.00,,,0.07,Wunderground v.1.15,2013-07-03 15:32:00,
2013-07-03 11:34:00,76.3,73.8,30.19,WSW,257,0.0,2.0,92,0.00,,,0.07,Wunderground v.1.15,2013-07-03 15:34:00,
2013-07-03 11:37:00,76.2,74.0,30.19,WSW,257,0.0,2.0,93,0.00,,,0.07,Wunderground v.1.15,2013-07-03 15:37:00,
2013-07-03 11:40:00,76.2,74.0,30.19,WSW,257,0.0,0.0,93,0.00,,,0.07,Wunderground v.1.15,2013-07-03 15:40:00,
2013-07-03 11:42:00,76.3,74.1,30.19,West,270,0.0,0.0,93,0.00,,,0.07,Wunderground v.1.15,2013-07-03 15:42:00,
2013-07-03 11:43:00,76.2,73.7,30.19,West,270,0.0,0.0,92,0.00,,,0.07,Wunderground v.1.15,2013-07-03 15:43:00,
2013-07-03 11:44:00,76.2,73.7,30.19,WNW,300,0.0,0.0,92,0.00,,,0.07,Wunderground v.1.15,2013-07-03 15:44:00,
2013-07-03 11:45:00,76.2,73.7,30.19,East,90,1.0,1.0,92,0.00,,,0.07,Wunderground v.1.15,2013-07-03 15:45:00,
2013-07-03 11:47:00,76.2,73.7,30.19,NW,324,0.0,1.0,92,0.00,,,0.07,Wunderground v.1.15,2013-07-03 15:47:00,
2013-07-03 11:49:00,76.2,73.7,30.19,NW,324,0.0,1.0,92,0.00,,,0.07,Wunderground v.1.15,2013-07-03 15:49:00,
2013-07-03 11:50:00,76.1,73.6,30.19,NW,324,0.0,1.0,92,0.00,,,0.07,Wunderground v.1.15,2013-07-03 15:50:00,
2013-07-03 11:52:00,76.1,73.6,30.19,SW,229,0.0,1.0,92,0.00,,,0.07,Wunderground v.1.15,2013-07-03 15:52:00,
2013-07-03 11:55:00,76.0,73.5,30.19,SW,229,0.0,1.0,92,0.00,,,0.07,Wunderground v.1.15,2013-07-03 15:55:00,
2013-07-03 11:57:00,76.0,73.5,30.19,West,274,1.0,1.0,92,0.00,,,0.07,Wunderground v.1.15,2013-07-03 15:57:00,
2013-07-03 12:01:00,75.8,73.3,30.18,West,273,0.0,0.0,92,0.00,,,0.07,Wunderground v.1.15,2013-07-03 16:01:00,
2013-07-03 12:02:00,75.8,73.3,30.19,WSW,252,0.0,0.0,92,0.00,,,0.07,Wunderground v.1.15,2013-07-03 16:02:00,
2013-07-03 12:03:00,75.8,73.3,30.19,WSW,252,0.0,0.0,92,0.00,,,0.07,Wunderground v.1.15,2013-07-03 16:03:00,
2013-07-03 12:06:00,75.8,73.6,30.19,WSW,252,0.0,1.0,93,0.00,,,0.07,Wunderground v.1.15,2013-07-03 16:06:00,
2013-07-03 12:08:00,75.8,73.6,30.19,WNW,288,0.0,2.0,93,0.00,,,0.07,Wunderground v.1.15,2013-07-03 16:08:00,
2013-07-03 12:09:00,75.8,73.6,30.19,WNW,288,0.0,2.0,93,0.00,,,0.07,Wunderground v.1.15,2013-07-03 16:09:00,
2013-07-03 12:11:00,75.7,73.2,30.19,West,279,0.0,0.0,92,0.00,,,0.07,Wunderground v.1.15,2013-07-03 16:11:00,
2013-07-03 12:13:00,75.6,73.1,30.19,WSW,253,1.0,2.0,92,0.00,,,0.07,Wunderground v.1.15,2013-07-03 16:13:00,
2013-07-03 12:15:00,75.6,73.1,30.19,WSW,253,0.0,2.0,92,0.00,,,0.07,Wunderground v.1.15,2013-07-03 16:15:00,
2013-07-03 12:17:00,75.6,73.4,30.18,WNW,301,1.0,2.0,93,0.00,,,0.07,Wunderground v.1.15,2013-07-03 16:17:00,
2013-07-03 12:19:00,75.7,73.5,30.18,WNW,300,0.0,2.0,93,0.00,,,0.07,Wunderground v.1.15,2013-07-03 16:19:00,
2013-07-03 12:20:00,75.8,73.6,30.18,North,8,0.0,0.0,93,0.00,,,0.07,Wunderground v.1.15,2013-07-03 16:20:00,
2013-07-03 12:23:00,75.9,73.7,30.18,North,4,0.0,0.0,93,0.00,,,0.07,Wunderground v.1.15,2013-07-03 16:23:00,
2013-07-03 12:25:00,76.1,73.9,30.18,North,5,0.0,0.0,93,0.00,,,0.07,Wunderground v.1.15,2013-07-03 16:25:00,
2013-07-03 12:26:00,76.1,74.2,30.18,North,5,0.0,0.0,94,0.00,,,0.07,Wunderground v.1.15,2013-07-03 16:26:00,
2013-07-03 12:28:00,76.1,73.6,30.18,North,5,0.0,0.0,92,0.00,,,0.07,Wunderground v.1.15,2013-07-03 16:28:00,
2013-07-03 12:31:00,76.1,73.6,30.18,North,5,0.0,0.0,92,0.00,,,0.07,Wunderground v.1.15,2013-07-03 16:31:00,
2013-07-03 12:32:00,76.1,73.6,30.18,North,4,0.0,0.0,92,0.00,,,0.07,Wunderground v.1.15,2013-07-03 16:32:00,
2013-07-03 12:33:00,76.1,73.6,30.18,NNE,19,0.0,0.0,92,0.00,,,0.07,Wunderground v.1.15,2013-07-03 16:33:00,
2013-07-03 12:37:00,76.3,74.1,30.17,SE,130,0.0,0.0,93,0.00,,,0.07,Wunderground v.1.15,2013-07-03 16:37:00,
2013-07-03 12:39:00,76.5,74.3,30.17,SE,129,0.0,0.0,93,0.00,,,0.07,Wunderground v.1.15,2013-07-03 16:39:00,
2013-07-03 12:42:00,76.9,74.7,30.17,North,351,0.0,0.0,93,0.00,,,0.07,Wunderground v.1.15,2013-07-03 16:42:00,
2013-07-03 12:44:00,77.1,74.6,30.17,SSW,212,0.0,0.0,92,0.00,,,0.07,Wunderground v.1.15,2013-07-03 16:44:00,
2013-07-03 12:45:00,77.2,74.7,30.17,SSW,212,0.0,1.0,92,0.00,,,0.07,Wunderground v.1.15,2013-07-03 16:45:00,
2013-07-03 12:47:00,77.3,74.1,30.17,NW,308,0.0,2.0,90,0.00,,,0.07,Wunderground v.1.15,2013-07-03 16:47:00,
2013-07-03 12:49:00,77.5,74.7,30.17,NW,308,0.0,2.0,91,0.00,,,0.07,Wunderground v.1.15,2013-07-03 16:49:00,
2013-07-03 12:50:00,77.7,74.9,30.17,WNW,302,0.0,0.0,91,0.00,,,0.07,Wunderground v.1.15,2013-07-03 16:50:00,
2013-07-03 12:51:00,77.7,74.9,30.17,WSW,256,2.0,2.0,91,0.00,,,0.07,Wunderground v.1.15,2013-07-03 16:51:00,
2013-07-03 12:52:00,77.7,73.9,30.17,WSW,243,0.0,3.0,88,0.00,,,0.07,Wunderground v.1.15,2013-07-03 16:52:00,
2013-07-03 12:54:00,77.8,74.3,30.17,SW,226,1.0,3.0,89,0.00,,,0.07,Wunderground v.1.15,2013-07-03 16:54:00,
2013-07-03 12:56:00,77.8,74.3,30.17,SW,219,0.0,3.0,89,0.00,,,0.07,Wunderground v.1.15,2013-07-03 16:56:00,
2013-07-03 12:59:00,77.8,74.0,30.17,WSW,237,0.0,3.0,88,0.00,,,0.07,Wunderground v.1.15,2013-07-03 16:59:00,
2013-07-03 13:00:00,77.8,74.0,30.17,WSW,237,0.0,0.0,88,0.00,,,0.07,Wunderground v.1.15,2013-07-03 17:00:00,
2013-07-03 13:02:00,77.9,74.4,30.17,WSW,237,0.0,0.0,89,0.00,,,0.07,Wunderground v.1.15,2013-07-03 17:02:00,
2013-07-03 13:05:00,78.0,74.2,30.17,WSW,238,0.0,0.0,88,0.00,,,0.07,Wunderground v.1.15,2013-07-03 17:05:00,
2013-07-03 13:07:00,78.1,74.6,30.17,WSW,238,0.0,0.0,89,0.00,,,0.07,Wunderground v.1.15,2013-07-03 17:07:00,
2013-07-03 13:08:00,78.2,74.7,30.17,SW,231,1.0,1.0,89,0.00,,,0.07,Wunderground v.1.15,2013-07-03 17:08:00,
2013-07-03 13:11:00,78.3,74.8,30.17,ENE,58,0.0,0.0,89,0.00,,,0.07,Wunderground v.1.15,2013-07-03 17:11:00,
2013-07-03 13:12:00,78.3,74.5,30.17,East,79,0.0,1.0,88,0.00,,,0.07,Wunderground v.1.15,2013-07-03 17:12:00,
2013-07-03 13:14:00,78.3,74.5,30.17,East,79,0.0,1.0,88,0.00,,,0.07,Wunderground v.1.15,2013-07-03 17:14:00,
2013-07-03 13:16:00,78.4,74.5,30.17,SW,221,0.0,1.0,88,0.00,,,0.07,Wunderground v.1.15,2013-07-03 17:16:00,
2013-07-03 13:17:00,78.5,74.6,30.17,SW,221,0.0,1.0,88,0.00,,,0.07,Wunderground v.1.15,2013-07-03 17:17:00,
2013-07-03 13:18:00,78.5,74.6,30.17,SW,221,0.0,1.0,88,0.00,,,0.07,Wunderground v.1.15,2013-07-03 17:18:00,
2013-07-03 13:19:00,78.6,74.7,30.17,SW,220,0.0,1.0,88,0.00,,,0.07,Wunderground v.1.15,2013-07-03 17:19:00,
2013-07-03 13:21:00,78.7,74.8,30.17,SW,221,0.0,0.0,88,0.00,,,0.07,Wunderground v.1.15,2013-07-03 17:21:00,
2013-07-03 13:23:00,78.9,75.0,30.17,SW,221,0.0,0.0,88,0.00,,,0.07,Wunderground v.1.15,2013-07-03 17:23:00,
2013-07-03 13:24:00,79.0,75.1,30.17,SW,221,0.0,0.0,88,0.00,,,0.07,Wunderground v.1.15,2013-07-03 17:24:00,
2013-07-03 13:27:00,79.2,75.0,30.17,SW,233,0.0,0.0,87,0.00,,,0.07,Wunderground v.1.15,2013-07-03 17:27:00,
2013-07-03 13:28:00,79.2,75.0,30.17,SW,233,0.0,0.0,87,0.00,,,0.07,Wunderground v.1.15,2013-07-03 17:28:00,
2013-07-03 13:29:00,79.2,74.6,30.17,SW,225,0.0,1.0,86,0.00,,,0.07,Wunderground v.1.15,2013-07-03 17:29:00,
2013-07-03 13:33:00,79.2,75.0,30.17,SW,226,0.0,0.0,87,0.00,,,0.07,Wunderground v.1.15,2013-07-03 17:33:00,
2013-07-03 13:34:00,79.2,75.0,30.17,SW,222,0.0,0.0,87,0.00,,,0.07,Wunderground v.1.15,2013-07-03 17:34:00,
2013-07-03 13:35:00,79.2,74.6,30.17,SW,219,1.0,2.0,86,0.00,,,0.07,Wunderground v.1.15,2013-07-03 17:35:00,
2013-07-03 13:38:00,79.0,74.5,30.17,SW,222,1.0,2.0,86,0.00,,,0.07,Wunderground v.1.15,2013-07-03 17:38:00,
2013-07-03 13:39:00,79.0,74.1,30.17,SW,222,0.0,2.0,85,0.00,,,0.07,Wunderground v.1.15,2013-07-03 17:39:00,
2013-07-03 13:41:00,79.0,74.8,30.16,SW,229,0.0,0.0,87,0.00,,,0.07,Wunderground v.1.15,2013-07-03 17:41:00,
2013-07-03 13:45:00,79.0,74.5,30.16,WSW,250,0.0,1.0,86,0.00,,,0.07,Wunderground v.1.15,2013-07-03 17:45:00,
2013-07-03 13:46:00,79.1,74.9,30.17,WSW,250,0.0,1.0,87,0.00,,,0.07,Wunderground v.1.15,2013-07-03 17:46:00,
2013-07-03 13:49:00,78.9,74.0,30.16,SW,235,3.0,3.0,85,0.00,,,0.07,Wunderground v.1.15,2013-07-03 17:49:00,
2013-07-03 13:50:00,78.9,74.0,30.16,SW,222,0.0,0.0,85,0.00,,,0.07,Wunderground v.1.15,2013-07-03 17:50:00,
2013-07-03 13:51:00,78.8,73.9,30.16,SW,223,0.0,1.0,85,0.00,,,0.07,Wunderground v.1.15,2013-07-03 17:51:00,
2013-07-03 13:55:00,78.8,74.3,30.16,SW,233,0.0,3.0,86,0.00,,,0.07,Wunderground v.1.15,2013-07-03 17:55:00,
2013-07-03 13:57:00,78.8,74.3,30.16,SW,235,0.0,3.0,86,0.00,,,0.07,Wunderground v.1.15,2013-07-03 17:57:00,
2013-07-03 14:01:00,78.9,74.4,30.16,SW,235,0.0,0.0,86,0.00,,,0.07,Wunderground v.1.15,2013-07-03 18:01:00,
2013-07-03 14:02:00,79.0,74.8,30.16,SW,235,0.0,0.0,87,0.00,,,0.07,Wunderground v.1.15,2013-07-03 18:02:00,
2013-07-03 14:03:00,79.0,74.1,30.16,SW,232,3.0,3.0,85,0.00,,,0.07,Wunderground v.1.15,2013-07-03 18:03:00,
2013-07-03 14:07:00,78.7,74.2,30.16,SW,214,0.0,3.0,86,0.00,,,0.07,Wunderground v.1.15,2013-07-03 18:07:00,
2013-07-03 14:08:00,78.7,74.5,30.16,WSW,243,0.0,3.0,87,0.00,,,0.07,Wunderground v.1.15,2013-07-03 18:08:00,
2013-07-03 14:10:00,78.7,74.5,30.16,WSW,242,0.0,0.0,87,0.00,,,0.07,Wunderground v.1.15,2013-07-03 18:10:00,
2013-07-03 14:12:00,78.6,74.4,30.16,WSW,242,0.0,0.0,87,0.00,,,0.07,Wunderground v.1.15,2013-07-03 18:12:00,
2013-07-03 14:13:00,78.5,74.3,30.16,WSW,242,0.0,0.0,87,0.00,,,0.07,Wunderground v.1.15,2013-07-03 18:13:00,
2013-07-03 14:14:00,78.4,74.2,30.16,WSW,243,0.0,0.0,87,0.00,,,0.07,Wunderground v.1.15,2013-07-03 18:14:00,
2013-07-03 14:15:00,78.4,74.2,30.16,WSW,243,0.0,0.0,87,0.00,,,0.07,Wunderground v.1.15,2013-07-03 18:15:00,
2013-07-03 14:18:00,78.4,74.2,30.16,WSW,242,0.0,0.0,87,0.00,,,0.07,Wunderground v.1.15,2013-07-03 18:18:00,
2013-07-03 14:21:00,78.4,74.2,30.16,WSW,242,0.0,0.0,87,0.00,,,0.07,Wunderground v.1.15,2013-07-03 18:21:00,
2013-07-03 14:23:00,78.4,74.2,30.16,WSW,243,0.0,0.0,87,0.00,,,0.07,Wunderground v.1.15,2013-07-03 18:23:00,
2013-07-03 14:25:00,78.4,74.2,30.16,WSW,242,0.0,0.0,87,0.00,,,0.07,Wunderground v.1.15,2013-07-03 18:25:00,
2013-07-03 14:26:00,78.4,74.5,30.16,WSW,242,0.0,0.0,88,0.00,,,0.07,Wunderground v.1.15,2013-07-03 18:26:00,
2013-07-03 14:29:00,78.4,74.5,30.16,WSW,242,0.0,0.0,88,0.00,,,0.07,Wunderground v.1.15,2013-07-03 18:29:00,
2013-07-03 14:30:00,78.3,74.5,30.16,WSW,243,0.0,0.0,88,0.00,,,0.07,Wunderground v.1.15,2013-07-03 18:30:00,
2013-07-03 14:31:00,78.4,74.9,30.16,WSW,242,0.0,0.0,89,0.00,,,0.07,Wunderground v.1.15,2013-07-03 18:31:00,
2013-07-03 14:32:00,78.4,74.9,30.16,WSW,242,0.0,0.0,89,0.00,,,0.07,Wunderground v.1.15,2013-07-03 18:32:00,
2013-07-03 14:34:00,78.3,74.5,30.16,WSW,240,0.0,0.0,88,0.00,,,0.07,Wunderground v.1.15,2013-07-03 18:34:00,
2013-07-03 14:35:00,78.3,74.5,30.16,WSW,240,0.0,0.0,88,0.00,,,0.07,Wunderground v.1.15,2013-07-03 18:35:00,
2013-07-03 14:36:00,78.3,74.8,30.16,WSW,240,0.0,0.0,89,0.00,,,0.07,Wunderground v.1.15,2013-07-03 18:36:00,
2013-07-03 14:37:00,78.3,74.8,30.16,WSW,240,0.0,0.0,89,0.00,,,0.07,Wunderground v.1.15,2013-07-03 18:37:00,
2013-07-03 14:39:00,78.2,74.4,30.16,WSW,240,0.0,0.0,88,0.00,,,0.07,Wunderground v.1.15,2013-07-03 18:39:00,
2013-07-03 14:40:00,78.2,74.7,30.16,WSW,240,0.0,0.0,89,0.00,,,0.07,Wunderground v.1.15,2013-07-03 18:40:00,
2013-07-03 14:43:00,78.3,75.1,30.16,West,276,0.0,0.0,90,0.00,,,0.07,Wunderground v.1.15,2013-07-03 18:43:00,
2013-07-03 14:44:00,78.2,74.7,30.16,West,276,0.0,0.0,89,0.00,,,0.07,Wunderground v.1.15,2013-07-03 18:44:00,
2013-07-03 14:45:00,78.2,74.7,30.16,West,275,0.0,0.0,89,0.00,,,0.07,Wunderground v.1.15,2013-07-03 18:45:00,
2013-07-03 14:49:00,78.1,74.9,30.16,SSW,197,0.0,1.0,90,0.00,,,0.07,Wunderground v.1.15,2013-07-03 18:49:00,
2013-07-03 14:50:00,78.1,74.9,30.16,SSW,197,0.0,0.0,90,0.00,,,0.07,Wunderground v.1.15,2013-07-03 18:50:00,
2013-07-03 14:51:00,78.1,74.9,30.16,SSW,198,0.0,0.0,90,0.00,,,0.07,Wunderground v.1.15,2013-07-03 18:51:00,
2013-07-03 14:52:00,78.0,74.5,30.16,West,271,0.0,0.0,89,0.00,,,0.07,Wunderground v.1.15,2013-07-03 18:52:00,
2013-07-03 14:54:00,78.0,74.5,30.16,West,271,0.0,0.0,89,0.00,,,0.07,Wunderground v.1.15,2013-07-03 18:54:00,
2013-07-03 14:56:00,78.0,74.2,30.15,East,101,0.0,1.0,88,0.00,,,0.07,Wunderground v.1.15,2013-07-03 18:56:00,
2013-07-03 14:57:00,78.0,74.2,30.15,East,101,0.0,1.0,88,0.00,,,0.07,Wunderground v.1.15,2013-07-03 18:57:00,
2013-07-03 14:59:00,78.1,74.3,30.15,SE,125,0.0,1.0,88,0.00,,,0.07,Wunderground v.1.15,2013-07-03 18:59:00,
2013-07-03 15:01:00,78.1,73.9,30.15,NW,321,0.0,1.0,87,0.00,,,0.07,Wunderground v.1.15,2013-07-03 19:01:00,
2013-07-03 15:02:00,78.1,73.9,30.15,NW,322,0.0,1.0,87,0.00,,,0.07,Wunderground v.1.15,2013-07-03 19:02:00,
2013-07-03 15:03:00,78.2,74.4,30.15,NW,322,0.0,1.0,88,0.00,,,0.07,Wunderground v.1.15,2013-07-03 19:03:00,
2013-07-03 15:04:00,78.2,74.4,30.15,NW,322,0.0,1.0,88,0.00,,,0.07,Wunderground v.1.15,2013-07-03 19:04:00,
2013-07-03 15:06:00,78.2,74.4,30.15,SW,224,0.0,1.0,88,0.00,,,0.07,Wunderground v.1.15,2013-07-03 19:06:00,
2013-07-03 15:08:00,78.2,74.7,30.15,West,267,0.0,1.0,89,0.00,,,0.07,Wunderground v.1.15,2013-07-03 19:08:00,
2013-07-03 15:10:00,78.3,75.1,30.15,West,266,0.0,0.0,90,0.00,,,0.07,Wunderground v.1.15,2013-07-03 19:10:00,
2013-07-03 15:11:00,78.4,74.9,30.14,West,267,0.0,0.0,89,0.00,,,0.07,Wunderground v.1.15,2013-07-03 19:11:00,
2013-07-03 15:14:00,78.4,74.9,30.15,WSW,249,0.0,0.0,89,0.00,,,0.07,Wunderground v.1.15,2013-07-03 19:14:00,
2013-07-03 15:15:00,78.4,74.5,30.15,WSW,246,0.0,1.0,88,0.00,,,0.07,Wunderground v.1.15,2013-07-03 19:15:00,
2013-07-03 15:17:00,78.4,74.5,30.14,WSW,237,1.0,1.0,88,0.00,,,0.07,Wunderground v.1.15,2013-07-03 19:17:00,
2013-07-03 15:19:00,78.5,74.6,30.14,SW,229,0.0,2.0,88,0.00,,,0.07,Wunderground v.1.15,2013-07-03 19:19:00,
2013-07-03 15:20:00,78.5,74.3,30.14,SW,233,1.0,2.0,87,0.00,,,0.07,Wunderground v.1.15,2013-07-03 19:20:00,
2013-07-03 15:21:00,78.5,74.6,30.14,SW,232,0.0,2.0,88,0.00,,,0.07,Wunderground v.1.15,2013-07-03 19:21:00,
2013-07-03 15:23:00,78.5,74.6,30.14,SSW,193,0.0,2.0,88,0.00,,,0.07,Wunderground v.1.15,2013-07-03 19:23:00,
2013-07-03 15:25:00,78.5,75.0,30.14,South,186,0.0,2.0,89,0.00,,,0.07,Wunderground v.1.15,2013-07-03 19:25:00,
2013-07-03 15:28:00,78.5,75.0,30.14,East,98,0.0,2.0,89,0.00,,,0.07,Wunderground v.1.15,2013-07-03 19:28:00,
2013-07-03 15:29:00,78.5,74.3,30.14,NNE,12,2.0,2.0,87,0.00,,,0.07,Wunderground v.1.15,2013-07-03 19:29:00,
2013-07-03 15:31:00,78.4,74.5,30.14,West,263,0.0,1.0,88,0.00,,,0.07,Wunderground v.1.15,2013-07-03 19:31:00,
2013-07-03 15:33:00,78.4,74.5,30.14,WNW,294,1.0,2.0,88,0.00,,,0.07,Wunderground v.1.15,2013-07-03 19:33:00,
2013-07-03 15:34:00,78.5,74.3,30.14,WNW,294,2.0,2.0,87,0.00,,,0.07,Wunderground v.1.15,2013-07-03 19:34:00,
2013-07-03 15:37:00,78.6,74.7,30.14,West,266,0.0,2.0,88,0.00,,,0.07,Wunderground v.1.15,2013-07-03 19:37:00,
2013-07-03 15:39:00,78.6,74.7,30.14,WSW,240,0.0,5.0,88,0.00,,,0.07,Wunderground v.1.15,2013-07-03 19:39:00,
2013-07-03 15:42:00,78.7,74.8,30.14,SE,145,0.0,1.0,88,0.00,,,0.07,Wunderground v.1.15,2013-07-03 19:42:00,
2013-07-03 15:44:00,78.7,74.8,30.14,ESE,113,0.0,2.0,88,0.00,,,0.07,Wunderground v.1.15,2013-07-03 19:44:00,
2013-07-03 15:47:00,78.8,74.9,30.14,SSW,212,0.0,2.0,88,0.00,,,0.07,Wunderground v.1.15,2013-07-03 19:47:00,
2013-07-03 15:49:00,78.9,75.0,30.14,NE,42,0.0,0.0,88,0.00,,,0.07,Wunderground v.1.15,2013-07-03 19:49:00,
2013-07-03 15:50:00,78.9,75.0,30.14,NE,42,0.0,0.0,88,0.00,,,0.07,Wunderground v.1.15,2013-07-03 19:50:00,
2013-07-03 15:53:00,78.9,74.7,30.14,West,260,1.0,2.0,87,0.00,,,0.07,Wunderground v.1.15,2013-07-03 19:53:00,
2013-07-03 15:55:00,78.8,74.3,30.14,WSW,253,1.0,6.0,86,0.00,,,0.07,Wunderground v.1.15,2013-07-03 19:55:00,
2013-07-03 15:58:00,78.6,74.1,30.14,SW,224,1.0,6.0,86,0.00,,,0.07,Wunderground v.1.15,2013-07-03 19:58:00,
2013-07-03 16:00:00,78.6,74.1,30.14,SSW,207,0.0,1.0,86,0.00,,,0.07,Wunderground v.1.15,2013-07-03 20:00:00,
2013-07-03 16:03:00,78.6,74.4,30.14,SSE,159,0.0,1.0,87,0.00,,,0.07,Wunderground v.1.15,2013-07-03 20:03:00,
2013-07-03 16:05:00,78.6,74.4,30.14,ENE,68,0.0,1.0,87,0.00,,,0.07,Wunderground v.1.15,2013-07-03 20:05:00,
2013-07-03 16:06:00,78.6,74.1,30.14,ENE,66,0.0,1.0,86,0.00,,,0.07,Wunderground v.1.15,2013-07-03 20:06:00,
2013-07-03 16:08:00,78.6,74.4,30.14,ENE,66,0.0,1.0,87,0.00,,,0.07,Wunderground v.1.15,2013-07-03 20:08:00,
2013-07-03 16:10:00,78.6,74.4,30.14,SSE,168,0.0,0.0,87,0.00,,,0.07,Wunderground v.1.15,2013-07-03 20:10:00,
2013-07-03 16:11:00,78.6,74.1,30.14,SSW,204,0.0,0.0,86,0.00,,,0.07,Wunderground v.1.15,2013-07-03 20:11:00,
2013-07-03 16:14:00,78.6,74.1,30.14,SW,231,0.0,0.0,86,0.00,,,0.07,Wunderground v.1.15,2013-07-03 20:14:00,
2013-07-03 16:17:00,78.7,74.5,30.14,SW,232,0.0,0.0,87,0.00,,,0.07,Wunderground v.1.15,2013-07-03 20:17:00,
2013-07-03 16:20:00,78.6,74.1,30.14,SW,233,0.0,0.0,86,0.00,,,0.07,Wunderground v.1.15,2013-07-03 20:20:00,
2013-07-03 16:22:00,78.5,73.6,30.14,West,267,0.0,0.0,85,0.00,,,0.07,Wunderground v.1.15,2013-07-03 20:22:00,
2013-07-03 16:25:00,78.3,73.8,30.14,West,276,0.0,1.0,86,0.00,,,0.07,Wunderground v.1.15,2013-07-03 20:25:00,
2013-07-03 16:27:00,78.2,73.7,30.14,West,275,0.0,1.0,86,0.00,,,0.07,Wunderground v.1.15,2013-07-03 20:27:00,
2013-07-03 16:28:00,78.2,73.7,30.14,West,276,0.0,1.0,86,0.00,,,0.07,Wunderground v.1.15,2013-07-03 20:28:00,
2013-07-03 16:30:00,78.0,73.8,30.14,WNW,296,0.0,0.0,87,0.00,,,0.07,Wunderground v.1.15,2013-07-03 20:30:00,
2013-07-03 16:33:00,77.9,73.7,30.14,SW,235,0.0,1.0,87,0.00,,,0.07,Wunderground v.1.15,2013-07-03 20:33:00,
2013-07-03 16:36:00,77.8,73.6,30.14,SW,235,0.0,1.0,87,0.00,,,0.07,Wunderground v.1.15,2013-07-03 20:36:00,
2013-07-03 16:38:00,77.7,73.2,30.14,WNW,284,1.0,3.0,86,0.00,,,0.07,Wunderground v.1.15,2013-07-03 20:38:00,
2013-07-03 16:39:00,77.8,73.6,30.14,West,271,0.0,3.0,87,0.00,,,0.07,Wunderground v.1.15,2013-07-03 20:39:00,
2013-07-03 16:40:00,77.7,73.5,30.14,West,271,0.0,0.0,87,0.00,,,0.07,Wunderground v.1.15,2013-07-03 20:40:00,
2013-07-03 16:41:00,77.8,73.6,30.14,NNE,17,0.0,1.0,87,0.00,,,0.07,Wunderground v.1.15,2013-07-03 20:41:00,
2013-07-03 16:43:00,77.8,74.0,30.14,NNW,330,0.0,1.0,88,0.00,,,0.07,Wunderground v.1.15,2013-07-03 20:43:00,
2013-07-03 16:45:00,77.8,74.0,30.14,WSW,255,0.0,1.0,88,0.00,,,0.07,Wunderground v.1.15,2013-07-03 20:45:00,
2013-07-03 16:46:00,77.8,73.6,30.14,WSW,255,0.0,1.0,87,0.00,,,0.07,Wunderground v.1.15,2013-07-03 20:46:00,
2013-07-03 16:47:00,77.9,74.1,30.14,WSW,256,0.0,1.0,88,0.00,,,0.07,Wunderground v.1.15,2013-07-03 20:47:00,
2013-07-03 16:49:00,78.0,74.2,30.14,NW,319,0.0,1.0,88,0.00,,,0.07,Wunderground v.1.15,2013-07-03 20:49:00,
2013-07-03 16:50:00,78.0,74.2,30.14,WSW,240,0.0,0.0,88,0.00,,,0.07,Wunderground v.1.15,2013-07-03 20:50:00,
2013-07-03 16:52:00,78.1,73.9,30.14,WSW,240,0.0,0.0,87,0.00,,,0.07,Wunderground v.1.15,2013-07-03 20:52:00,
2013-07-03 16:54:00,78.1,73.9,30.13,SSW,207,0.0,2.0,87,0.00,,,0.07,Wunderground v.1.15,2013-07-03 20:54:00,
2013-07-03 16:55:00,78.2,74.0,30.13,SW,222,0.0,2.0,87,0.00,,,0.07,Wunderground v.1.15,2013-07-03 20:55:00,
2013-07-03 16:57:00,78.2,74.0,30.13,WSW,238,0.0,2.0,87,0.00,,,0.07,Wunderground v.1.15,2013-07-03 20:57:00,
2013-07-03 17:00:00,78.3,74.1,30.13,West,271,0.0,0.0,87,0.00,,,0.07,Wunderground v.1.15,2013-07-03 21:00:00,
2013-07-03 17:02:00,78.4,74.2,30.13,West,271,0.0,0.0,87,0.00,,,0.07,Wunderground v.1.15,2013-07-03 21:02:00,
2013-07-03 17:03:00,78.4,74.2,30.13,WNW,288,0.0,0.0,87,0.00,,,0.07,Wunderground v.1.15,2013-07-03 21:03:00,
2013-07-03 17:05:00,78.4,74.2,30.13,SSW,212,0.0,0.0,87,0.00,,,0.07,Wunderground v.1.15,2013-07-03 21:05:00,
2013-07-03 17:06:00,78.4,74.2,30.13,SSW,212,0.0,0.0,87,0.00,,,0.07,Wunderground v.1.15,2013-07-03 21:06:00,
2013-07-03 17:07:00,78.5,74.3,30.13,WSW,253,0.0,0.0,87,0.00,,,0.07,Wunderground v.1.15,2013-07-03 21:07:00,
2013-07-03 17:09:00,78.5,74.6,30.13,SSE,167,0.0,0.0,88,0.00,,,0.07,Wunderground v.1.15,2013-07-03 21:09:00,
2013-07-03 17:10:00,78.5,74.3,30.13,WSW,256,1.0,1.0,87,0.00,,,0.07,Wunderground v.1.15,2013-07-03 21:10:00,
2013-07-03 17:11:00,78.5,74.3,30.13,WSW,256,0.0,1.0,87,0.00,,,0.07,Wunderground v.1.15,2013-07-03 21:11:00,
2013-07-03 17:13:00,78.6,74.4,30.13,SSE,167,0.0,1.0,87,0.00,,,0.07,Wunderground v.1.15,2013-07-03 21:13:00,
2013-07-03 17:14:00,78.6,74.4,30.13,SSE,167,0.0,1.0,87,0.00,,,0.07,Wunderground v.1.15,2013-07-03 21:14:00,
2013-07-03 17:16:00,78.7,74.5,30.13,SSE,168,0.0,1.0,87,0.00,,,0.07,Wunderground v.1.15,2013-07-03 21:16:00,
2013-07-03 17:17:00,78.7,74.8,30.13,SSE,168,0.0,1.0,88,0.00,,,0.07,Wunderground v.1.15,2013-07-03 21:17:00,
2013-07-03 17:19:00,78.8,74.6,30.13,SSE,167,0.0,1.0,87,0.00,,,0.07,Wunderground v.1.15,2013-07-03 21:19:00,
2013-07-03 17:21:00,78.9,74.7,30.13,SSE,168,0.0,0.0,87,0.00,,,0.07,Wunderground v.1.15,2013-07-03 21:21:00,
2013-07-03 17:22:00,79.0,74.8,30.13,SSE,168,0.0,0.0,87,0.00,,,0.07,Wunderground v.1.15,2013-07-03 21:22:00,
2013-07-03 17:25:00,79.0,74.8,30.13,SSE,167,0.0,0.0,87,0.00,,,0.07,Wunderground v.1.15,2013-07-03 21:25:00,
2013-07-03 17:26:00,79.0,74.8,30.13,SSE,167,0.0,0.0,87,0.00,,,0.07,Wunderground v.1.15,2013-07-03 21:26:00,
2013-07-03 17:27:00,78.9,74.7,30.13,SSE,168,0.0,0.0,87,0.00,,,0.07,Wunderground v.1.15,2013-07-03 21:27:00,
2013-07-03 17:31:00,78.7,74.8,30.13,SSE,168,0.0,0.0,88,0.00,,,0.07,Wunderground v.1.15,2013-07-03 21:31:00,
2013-07-03 17:33:00,78.7,74.8,30.13,SSE,168,0.0,0.0,88,0.00,,,0.07,Wunderground v.1.15,2013-07-03 21:33:00,
2013-07-03 17:37:00,78.2,74.4,30.13,WSW,238,0.0,0.0,88,0.00,,,0.07,Wunderground v.1.15,2013-07-03 21:37:00,
2013-07-03 17:38:00,78.1,74.6,30.13,WSW,238,0.0,0.0,89,0.00,,,0.07,Wunderground v.1.15,2013-07-03 21:38:00,
2013-07-03 17:43:00,77.5,74.3,30.12,WSW,237,0.0,0.0,90,0.00,,,0.08,Wunderground v.1.15,2013-07-03 21:43:00,
2013-07-03 17:44:00,77.5,74.3,30.13,WSW,237,0.0,0.0,90,0.00,,,0.08,Wunderground v.1.15,2013-07-03 21:44:00,
2013-07-03 17:45:00,77.4,74.2,30.13,WSW,237,0.0,0.0,90,0.00,,,0.08,Wunderground v.1.15,2013-07-03 21:45:00,
2013-07-03 17:48:00,77.1,74.6,30.13,WSW,237,0.0,0.0,92,0.00,,,0.08,Wunderground v.1.15,2013-07-03 21:48:00,
2013-07-03 17:49:00,77.1,74.6,30.13,WSW,237,0.0,0.0,92,0.00,,,0.08,Wunderground v.1.15,2013-07-03 21:49:00,
2013-07-03 17:51:00,76.9,74.4,30.13,WSW,238,0.0,0.0,92,0.00,,,0.08,Wunderground v.1.15,2013-07-03 21:51:00,
2013-07-03 17:53:00,76.7,74.2,30.13,WSW,238,0.0,0.0,92,0.00,,,0.08,Wunderground v.1.15,2013-07-03 21:53:00,
2013-07-03 17:54:00,76.7,74.2,30.13,WSW,238,0.0,0.0,92,0.00,,,0.08,Wunderground v.1.15,2013-07-03 21:54:00,
2013-07-03 17:55:00,76.7,74.5,30.13,WSW,238,0.0,0.0,93,0.00,,,0.08,Wunderground v.1.15,2013-07-03 21:55:00,
2013-07-03 17:56:00,76.6,74.4,30.13,WSW,237,0.0,0.0,93,0.00,,,0.08,Wunderground v.1.15,2013-07-03 21:56:00,
2013-07-03 17:58:00,76.5,74.3,30.13,WSW,238,0.0,0.0,93,0.00,,,0.08,Wunderground v.1.15,2013-07-03 21:58:00,
2013-07-03 17:59:00,76.5,74.3,30.13,WSW,238,0.0,0.0,93,0.00,,,0.08,Wunderground v.1.15,2013-07-03 21:59:00,
2013-07-03 18:01:00,76.4,74.2,30.13,WSW,238,0.0,0.0,93,0.00,,,0.08,Wunderground v.1.15,2013-07-03 22:01:00,
2013-07-03 18:02:00,76.3,74.1,30.13,WSW,238,0.0,0.0,93,0.00,,,0.08,Wunderground v.1.15,2013-07-03 22:02:00,
2013-07-03 18:03:00,76.3,74.1,30.13,WSW,237,0.0,0.0,93,0.00,,,0.08,Wunderground v.1.15,2013-07-03 22:03:00,
2013-07-03 18:05:00,76.3,74.4,30.13,WSW,238,0.0,0.0,94,0.00,,,0.08,Wunderground v.1.15,2013-07-03 22:05:00,
2013-07-03 18:06:00,76.3,74.4,30.13,WSW,238,0.0,0.0,94,0.00,,,0.08,Wunderground v.1.15,2013-07-03 22:06:00,
2013-07-03 18:08:00,76.3,74.4,30.13,WSW,238,0.0,0.0,94,0.00,,,0.08,Wunderground v.1.15,2013-07-03 22:08:00,
2013-07-03 18:09:00,76.3,74.4,30.13,WSW,238,0.0,0.0,94,0.00,,,0.08,Wunderground v.1.15,2013-07-03 22:09:00,
2013-07-03 18:10:00,76.2,74.3,30.13,WSW,238,0.0,0.0,94,0.00,,,0.08,Wunderground v.1.15,2013-07-03 22:10:00,
2013-07-03 18:11:00,76.3,74.4,30.13,WSW,237,0.0,0.0,94,0.00,,,0.08,Wunderground v.1.15,2013-07-03 22:11:00,
2013-07-03 18:14:00,76.2,74.3,30.13,WSW,238,0.0,0.0,94,0.00,,,0.08,Wunderground v.1.15,2013-07-03 22:14:00,
2013-07-03 18:16:00,76.2,74.3,30.13,WSW,238,0.0,0.0,94,0.00,,,0.08,Wunderground v.1.15,2013-07-03 22:16:00,
2013-07-03 18:19:00,76.2,74.3,30.13,WSW,238,0.0,0.0,94,0.00,,,0.08,Wunderground v.1.15,2013-07-03 22:19:00,
2013-07-03 18:20:00,76.2,74.7,30.13,WSW,238,0.0,0.0,95,0.00,,,0.08,Wunderground v.1.15,2013-07-03 22:20:00,
2013-07-03 18:21:00,76.2,74.7,30.13,WSW,238,0.0,0.0,95,0.00,,,0.08,Wunderground v.1.15,2013-07-03 22:21:00,
2013-07-03 18:25:00,76.2,74.3,30.14,WSW,237,0.0,0.0,94,0.00,,,0.08,Wunderground v.1.15,2013-07-03 22:25:00,
2013-07-03 18:26:00,76.2,74.3,30.14,WSW,238,0.0,0.0,94,0.00,,,0.08,Wunderground v.1.15,2013-07-03 22:26:00,
2013-07-03 18:27:00,76.2,74.7,30.14,WSW,238,0.0,0.0,95,0.00,,,0.08,Wunderground v.1.15,2013-07-03 22:27:00,
2013-07-03 18:31:00,76.2,74.3,30.14,North,6,0.0,2.0,94,0.00,,,0.08,Wunderground v.1.15,2013-07-03 22:31:00,
2013-07-03 18:34:00,76.1,74.2,30.14,North,6,0.0,2.0,94,0.00,,,0.08,Wunderground v.1.15,2013-07-03 22:34:00,
2013-07-03 18:36:00,76.1,74.2,30.14,NW,304,0.0,2.0,94,0.00,,,0.08,Wunderground v.1.15,2013-07-03 22:36:00,
2013-07-03 18:38:00,76.0,74.1,30.14,West,273,0.0,2.0,94,0.00,,,0.08,Wunderground v.1.15,2013-07-03 22:38:00,
2013-07-03 18:40:00,76.0,74.1,30.14,WSW,243,1.0,1.0,94,0.00,,,0.08,Wunderground v.1.15,2013-07-03 22:40:00,
2013-07-03 18:42:00,75.9,74.0,30.14,West,281,0.0,1.0,94,0.00,,,0.08,Wunderground v.1.15,2013-07-03 22:42:00,
2013-07-03 18:43:00,75.9,74.0,30.14,WSW,241,0.0,1.0,94,0.00,,,0.08,Wunderground v.1.15,2013-07-03 22:43:00,
2013-07-03 18:45:00,75.8,73.9,30.14,WSW,241,0.0,1.0,94,0.00,,,0.08,Wunderground v.1.15,2013-07-03 22:45:00,
2013-07-03 18:48:00,75.7,73.8,30.14,WSW,254,0.0,1.0,94,0.00,,,0.08,Wunderground v.1.15,2013-07-03 22:48:00,
2013-07-03 18:50:00,75.7,73.8,30.14,WSW,254,0.0,0.0,94,0.00,,,0.08,Wunderground v.1.15,2013-07-03 22:50:00,
2013-07-03 18:53:00,75.7,73.8,30.14,WSW,254,0.0,0.0,94,0.00,,,0.08,Wunderground v.1.15,2013-07-03 22:53:00,
2013-07-03 18:54:00,75.7,73.8,30.15,WSW,255,0.0,0.0,94,0.00,,,0.08,Wunderground v.1.15,2013-07-03 22:54:00,
2013-07-03 18:56:00,75.7,73.8,30.15,West,266,0.0,0.0,94,0.00,,,0.08,Wunderground v.1.15,2013-07-03 22:56:00,
2013-07-03 18:59:00,75.6,73.8,30.15,West,267,0.0,0.0,94,0.00,,,0.08,Wunderground v.1.15,2013-07-03 22:59:00,
2013-07-03 19:02:00,75.5,73.7,30.15,West,267,0.0,0.0,94,0.00,,,0.08,Wunderground v.1.15,2013-07-03 23:02:00,
2013-07-03 19:05:00,75.5,73.7,30.15,West,267,0.0,0.0,94,0.00,,,0.08,Wunderground v.1.15,2013-07-03 23:05:00,
2013-07-03 19:07:00,75.4,73.6,30.15,West,266,0.0,0.0,94,0.00,,,0.08,Wunderground v.1.15,2013-07-03 23:07:00,
2013-07-03 19:10:00,75.4,73.6,30.15,West,266,0.0,0.0,94,0.00,,,0.08,Wunderground v.1.15,2013-07-03 23:10:00,
2013-07-03 19:12:00,75.4,73.6,30.16,West,266,0.0,0.0,94,0.00,,,0.08,Wunderground v.1.15,2013-07-03 23:12:00,
2013-07-03 19:15:00,75.4,73.9,30.16,West,267,0.0,0.0,95,0.00,,,0.08,Wunderground v.1.15,2013-07-03 23:15:00,
2013-07-03 19:16:00,75.4,73.9,30.16,West,266,0.0,0.0,95,0.00,,,0.08,Wunderground v.1.15,2013-07-03 23:16:00,
2013-07-03 19:18:00,75.4,73.9,30.16,West,266,0.0,0.0,95,0.00,,,0.08,Wunderground v.1.15,2013-07-03 23:18:00,
2013-07-03 19:20:00,75.4,73.9,30.16,West,267,0.0,0.0,95,0.00,,,0.08,Wunderground v.1.15,2013-07-03 23:20:00,
2013-07-03 19:21:00,75.4,73.9,30.16,West,267,0.0,0.0,95,0.00,,,0.08,Wunderground v.1.15,2013-07-03 23:21:00,
2013-07-03 19:23:00,75.4,73.9,30.16,West,266,0.0,0.0,95,0.00,,,0.08,Wunderground v.1.15,2013-07-03 23:23:00,
2013-07-03 19:26:00,75.3,73.8,30.16,West,260,0.0,0.0,95,0.00,,,0.08,Wunderground v.1.15,2013-07-03 23:26:00,
2013-07-03 19:28:00,75.3,73.8,30.16,West,260,0.0,0.0,95,0.00,,,0.08,Wunderground v.1.15,2013-07-03 23:28:00,
2013-07-03 19:30:00,75.2,73.7,30.16,WSW,255,0.0,0.0,95,0.00,,,0.08,Wunderground v.1.15,2013-07-03 23:30:00,
2013-07-03 19:32:00,75.1,73.3,30.16,WNW,299,0.0,1.0,94,0.00,,,0.08,Wunderground v.1.15,2013-07-03 23:32:00,
2013-07-03 19:34:00,75.0,73.2,30.16,NW,324,0.0,2.0,94,0.00,,,0.08,Wunderground v.1.15,2013-07-03 23:34:00,
2013-07-03 19:35:00,75.0,73.2,30.16,NW,324,0.0,2.0,94,0.00,,,0.08,Wunderground v.1.15,2013-07-03 23:35:00,
2013-07-03 19:37:00,74.9,73.4,30.16,WNW,295,0.0,2.0,95,0.00,,,0.08,Wunderground v.1.15,2013-07-03 23:37:00,
2013-07-03 19:38:00,74.9,73.4,30.16,WNW,295,0.0,2.0,95,0.00,,,0.08,Wunderground v.1.15,2013-07-03 23:38:00,
2013-07-03 19:40:00,74.9,73.4,30.16,WNW,295,0.0,0.0,95,0.00,,,0.08,Wunderground v.1.15,2013-07-03 23:40:00,
2013-07-03 19:43:00,74.8,73.0,30.16,WNW,295,0.0,0.0,94,0.00,,,0.08,Wunderground v.1.15,2013-07-03 23:43:00,
2013-07-03 19:46:00,74.7,72.9,30.16,WNW,302,0.0,0.0,94,0.00,,,0.08,Wunderground v.1.15,2013-07-03 23:46:00,
2013-07-03 19:49:00,74.6,73.1,30.16,WNW,302,0.0,0.0,95,0.00,,,0.08,Wunderground v.1.15,2013-07-03 23:49:00,
2013-07-03 19:50:00,74.6,73.1,30.16,WNW,302,0.0,0.0,95,0.00,,,0.08,Wunderground v.1.15,2013-07-03 23:50:00,
2013-07-03 19:51:00,74.5,73.0,30.16,WSW,256,0.0,0.0,95,0.00,,,0.08,Wunderground v.1.15,2013-07-03 23:51:00,
2013-07-03 19:54:00,74.4,72.9,30.16,SW,226,0.0,0.0,95,0.00,,,0.08,Wunderground v.1.15,2013-07-03 23:54:00,
2013-07-03 19:55:00,74.4,72.9,30.16,SW,229,0.0,0.0,95,0.00,,,0.08,Wunderground v.1.15,2013-07-03 23:55:00,
2013-07-03 19:56:00,74.4,72.9,30.16,SW,228,0.0,0.0,95,0.00,,,0.08,Wunderground v.1.15,2013-07-03 23:56:00,
2013-07-03 19:57:00,74.3,72.8,30.16,SW,228,0.0,0.0,95,0.00,,,0.08,Wunderground v.1.15,2013-07-03 23:57:00,
2013-07-03 19:59:00,74.3,72.8,30.16,SW,228,0.0,0.0,95,0.00,,,0.08,Wunderground v.1.15,2013-07-03 23:59:00,
2013-07-03 20:01:00,74.3,72.8,30.16,SW,229,0.0,0.0,95,0.00,,,0.08,Wunderground v.1.15,2013-07-04 00:01:00,
2013-07-03 20:02:00,74.2,72.7,30.16,SW,228,0.0,0.0,95,0.00,,,0.08,Wunderground v.1.15,2013-07-04 00:02:00,
2013-07-03 20:05:00,74.2,72.7,30.16,SW,228,0.0,0.0,95,0.00,,,0.08,Wunderground v.1.15,2013-07-04 00:05:00,
2013-07-03 20:08:00,74.1,72.6,30.16,SW,228,0.0,0.0,95,0.00,,,0.08,Wunderground v.1.15,2013-07-04 00:08:00,
2013-07-03 20:09:00,74.1,72.6,30.16,SW,228,0.0,0.0,95,0.00,,,0.08,Wunderground v.1.15,2013-07-04 00:09:00,
2013-07-03 20:11:00,74.0,72.5,30.16,SW,228,0.0,0.0,95,0.00,,,0.08,Wunderground v.1.15,2013-07-04 00:11:00,
2013-07-03 20:14:00,74.0,72.5,30.16,SW,228,0.0,0.0,95,0.00,,,0.08,Wunderground v.1.15,2013-07-04 00:14:00,
2013-07-03 20:16:00,73.9,72.4,30.16,SW,229,0.0,0.0,95,0.00,,,0.08,Wunderground v.1.15,2013-07-04 00:16:00,
2013-07-03 20:19:00,73.9,72.4,30.16,SW,228,0.0,0.0,95,0.00,,,0.08,Wunderground v.1.15,2013-07-04 00:19:00,
2013-07-03 20:21:00,73.9,72.4,30.16,SW,228,0.0,0.0,95,0.00,,,0.08,Wunderground v.1.15,2013-07-04 00:21:00,
2013-07-03 20:22:00,73.9,72.4,30.16,SW,229,0.0,0.0,95,0.00,,,0.08,Wunderground v.1.15,2013-07-04 00:22:00,
2013-07-03 20:24:00,73.8,72.6,30.16,SW,228,0.0,0.0,96,0.00,,,0.08,Wunderground v.1.15,2013-07-04 00:24:00,
2013-07-03 20:25:00,73.8,72.6,30.16,SW,235,0.0,0.0,96,0.00,,,0.08,Wunderground v.1.15,2013-07-04 00:25:00,
2013-07-03 20:26:00,73.8,72.6,30.16,SW,232,0.0,0.0,96,0.00,,,0.08,Wunderground v.1.15,2013-07-04 00:26:00,
2013-07-03 20:27:00,73.8,72.3,30.16,SW,232,0.0,0.0,95,0.00,,,0.08,Wunderground v.1.15,2013-07-04 00:27:00,
2013-07-03 20:30:00,73.7,72.5,30.16,SW,232,0.0,0.0,96,0.00,,,0.08,Wunderground v.1.15,2013-07-04 00:30:00,
2013-07-03 20:31:00,73.7,72.5,30.16,SW,232,0.0,0.0,96,0.00,,,0.08,Wunderground v.1.15,2013-07-04 00:31:00,
2013-07-03 20:34:00,73.7,72.5,30.16,SW,232,0.0,0.0,96,0.00,,,0.08,Wunderground v.1.15,2013-07-04 00:34:00,
2013-07-03 20:36:00,73.7,72.5,30.16,SW,232,0.0,0.0,96,0.00,,,0.08,Wunderground v.1.15,2013-07-04 00:36:00,
2013-07-03 20:37:00,73.7,72.5,30.16,SW,232,0.0,0.0,96,0.00,,,0.08,Wunderground v.1.15,2013-07-04 00:37:00,
2013-07-03 20:40:00,73.7,72.5,30.16,SW,232,0.0,0.0,96,0.00,,,0.08,Wunderground v.1.15,2013-07-04 00:40:00,
2013-07-03 20:41:00,73.7,72.5,30.17,SW,232,0.0,0.0,96,0.00,,,0.08,Wunderground v.1.15,2013-07-04 00:41:00,
2013-07-03 20:42:00,73.6,72.4,30.16,SW,232,0.0,0.0,96,0.00,,,0.08,Wunderground v.1.15,2013-07-04 00:42:00,
2013-07-03 20:43:00,73.6,72.4,30.16,SW,232,0.0,0.0,96,0.00,,,0.08,Wunderground v.1.15,2013-07-04 00:43:00,
2013-07-03 20:45:00,73.6,72.4,30.16,SW,232,0.0,0.0,96,0.00,,,0.08,Wunderground v.1.15,2013-07-04 00:45:00,
2013-07-03 20:46:00,73.6,72.4,30.16,SW,232,0.0,0.0,96,0.00,,,0.08,Wunderground v.1.15,2013-07-04 00:46:00,
2013-07-03 20:49:00,73.6,72.4,30.16,SW,232,0.0,0.0,96,0.00,,,0.08,Wunderground v.1.15,2013-07-04 00:49:00,
2013-07-03 20:50:00,73.6,72.4,30.16,SW,232,0.0,0.0,96,0.00,,,0.08,Wunderground v.1.15,2013-07-04 00:50:00,
2013-07-03 20:53:00,73.5,72.3,30.16,SW,232,0.0,0.0,96,0.00,,,0.08,Wunderground v.1.15,2013-07-04 00:53:00,
2013-07-03 20:54:00,73.5,72.3,30.16,SW,232,0.0,0.0,96,0.00,,,0.08,Wunderground v.1.15,2013-07-04 00:54:00,
2013-07-03 20:56:00,73.5,72.3,30.16,SW,232,0.0,0.0,96,0.00,,,0.08,Wunderground v.1.15,2013-07-04 00:56:00,
2013-07-03 20:58:00,73.5,72.3,30.16,SW,232,0.0,0.0,96,0.00,,,0.08,Wunderground v.1.15,2013-07-04 00:58:00,
2013-07-03 20:59:00,73.5,72.3,30.16,SW,232,0.0,0.0,96,0.00,,,0.08,Wunderground v.1.15,2013-07-04 00:59:00,
2013-07-03 21:00:00,73.5,72.3,30.16,SW,232,0.0,0.0,96,0.00,,,0.08,Wunderground v.1.15,2013-07-04 01:00:00,
2013-07-03 21:02:00,73.4,72.2,30.16,SW,232,0.0,0.0,96,0.00,,,0.08,Wunderground v.1.15,2013-07-04 01:02:00,
2013-07-03 21:04:00,73.4,72.2,30.16,SW,232,0.0,0.0,96,0.00,,,0.08,Wunderground v.1.15,2013-07-04 01:04:00,
2013-07-03 21:06:00,73.4,72.2,30.16,SW,232,0.0,0.0,96,0.00,,,0.08,Wunderground v.1.15,2013-07-04 01:06:00,
2013-07-03 21:08:00,73.4,72.5,30.16,SW,232,0.0,0.0,97,0.00,,,0.08,Wunderground v.1.15,2013-07-04 01:08:00,
2013-07-03 21:10:00,73.5,72.6,30.16,SW,232,0.0,0.0,97,0.00,,,0.08,Wunderground v.1.15,2013-07-04 01:10:00,
2013-07-03 21:12:00,73.4,72.5,30.16,SW,232,0.0,0.0,97,0.00,,,0.08,Wunderground v.1.15,2013-07-04 01:12:00,
2013-07-03 21:15:00,73.4,72.5,30.16,SW,232,0.0,0.0,97,0.00,,,0.09,Wunderground v.1.15,2013-07-04 01:15:00,
2013-07-03 21:16:00,73.5,72.6,30.16,SW,232,0.0,0.0,97,0.00,,,0.09,Wunderground v.1.15,2013-07-04 01:16:00,
2013-07-03 21:17:00,73.5,72.6,30.16,SW,232,0.0,0.0,97,0.00,,,0.09,Wunderground v.1.15,2013-07-04 01:17:00,
2013-07-03 21:20:00,73.4,72.5,30.16,SW,233,0.0,0.0,97,0.00,,,0.09,Wunderground v.1.15,2013-07-04 01:20:00,
2013-07-03 21:21:00,73.4,72.5,30.16,SW,232,0.0,0.0,97,0.00,,,0.09,Wunderground v.1.15,2013-07-04 01:21:00,
2013-07-03 21:23:00,73.4,72.5,30.16,SW,232,0.0,0.0,97,0.07,,,0.10,Wunderground v.1.15,2013-07-04 01:23:00,
2013-07-03 21:24:00,73.4,72.5,30.16,SW,233,0.0,0.0,97,0.07,,,0.10,Wunderground v.1.15,2013-07-04 01:24:00,
2013-07-03 21:26:00,73.3,72.4,30.16,SW,232,0.0,0.0,97,0.07,,,0.10,Wunderground v.1.15,2013-07-04 01:26:00,
2013-07-03 21:28:00,73.3,72.4,30.16,WSW,255,0.0,0.0,97,0.07,,,0.10,Wunderground v.1.15,2013-07-04 01:28:00,
2013-07-03 21:29:00,73.3,72.4,30.16,SSW,210,3.0,5.0,97,0.07,,,0.10,Wunderground v.1.15,2013-07-04 01:29:00,
2013-07-03 21:31:00,73.3,72.4,30.16,East,99,0.0,1.0,97,0.06,,,0.10,Wunderground v.1.15,2013-07-04 01:31:00,
2013-07-03 21:34:00,73.2,72.3,30.16,WNW,302,0.0,1.0,97,0.05,,,0.11,Wunderground v.1.15,2013-07-04 01:34:00,
2013-07-03 21:36:00,73.2,72.3,30.16,West,270,0.0,1.0,97,0.05,,,0.11,Wunderground v.1.15,2013-07-04 01:36:00,
2013-07-03 21:39:00,73.2,72.3,30.17,SW,225,0.0,2.0,97,0.05,,,0.11,Wunderground v.1.15,2013-07-04 01:39:00,
2013-07-03 21:40:00,73.2,72.3,30.17,SW,225,0.0,0.0,97,0.05,,,0.11,Wunderground v.1.15,2013-07-04 01:40:00,
2013-07-03 21:42:00,73.2,72.3,30.17,SW,225,0.0,0.0,97,0.05,,,0.11,Wunderground v.1.15,2013-07-04 01:42:00,
2013-07-03 21:44:00,73.2,72.3,30.17,SW,224,0.0,0.0,97,0.05,,,0.11,Wunderground v.1.15,2013-07-04 01:44:00,
2013-07-03 21:45:00,73.2,72.3,30.17,SW,225,0.0,0.0,97,0.05,,,0.11,Wunderground v.1.15,2013-07-04 01:45:00,
2013-07-03 21:47:00,73.2,72.3,30.16,SW,225,0.0,1.0,97,0.05,,,0.11,Wunderground v.1.15,2013-07-04 01:47:00,
2013-07-03 21:50:00,73.2,72.3,30.16,SW,225,0.0,0.0,97,0.04,,,0.11,Wunderground v.1.15,2013-07-04 01:50:00,
2013-07-03 21:51:00,73.2,72.3,30.17,SW,225,0.0,0.0,97,0.00,,,0.11,Wunderground v.1.15,2013-07-04 01:51:00,
2013-07-03 21:52:00,73.2,72.3,30.17,SW,225,0.0,0.0,97,0.00,,,0.11,Wunderground v.1.15,2013-07-04 01:52:00,
2013-07-03 21:55:00,73.2,72.6,30.17,SW,225,0.0,0.0,98,0.00,,,0.11,Wunderground v.1.15,2013-07-04 01:55:00,
2013-07-03 21:57:00,73.1,72.5,30.17,SW,225,0.0,0.0,98,0.00,,,0.11,Wunderground v.1.15,2013-07-04 01:57:00,
2013-07-03 22:00:00,73.1,72.5,30.17,SW,225,0.0,0.0,98,0.00,,,0.11,Wunderground v.1.15,2013-07-04 02:00:00,
2013-07-03 22:02:00,73.0,72.4,30.17,SW,225,0.0,0.0,98,0.00,,,0.11,Wunderground v.1.15,2013-07-04 02:02:00,
2013-07-03 22:03:00,73.0,72.4,30.17,SW,225,0.0,0.0,98,0.00,,,0.11,Wunderground v.1.15,2013-07-04 02:03:00,
2013-07-03 22:06:00,73.0,72.4,30.17,SW,225,0.0,0.0,98,0.00,,,0.11,Wunderground v.1.15,2013-07-04 02:06:00,
2013-07-03 22:08:00,73.0,72.4,30.17,SW,225,0.0,0.0,98,0.00,,,0.11,Wunderground v.1.15,2013-07-04 02:08:00,
2013-07-03 22:11:00,72.9,72.3,30.18,WNW,302,0.0,0.0,98,0.00,,,0.11,Wunderground v.1.15,2013-07-04 02:11:00,
2013-07-03 22:14:00,72.9,72.3,30.18,WNW,285,0.0,0.0,98,0.00,,,0.11,Wunderground v.1.15,2013-07-04 02:14:00,
2013-07-03 22:16:00,72.8,72.2,30.18,WNW,285,0.0,0.0,98,0.00,,,0.11,Wunderground v.1.15,2013-07-04 02:16:00,
2013-07-03 22:19:00,72.7,72.1,30.18,WNW,285,0.0,0.0,98,0.00,,,0.11,Wunderground v.1.15,2013-07-04 02:19:00,
2013-07-03 22:22:00,72.7,72.1,30.17,WNW,285,0.0,0.0,98,0.00,,,0.11,Wunderground v.1.15,2013-07-04 02:22:00,
2013-07-03 22:24:00,72.7,72.1,30.18,WNW,285,0.0,0.0,98,0.00,,,0.11,Wunderground v.1.15,2013-07-04 02:24:00,
2013-07-03 22:25:00,72.7,72.1,30.18,WNW,285,0.0,0.0,98,0.00,,,0.11,Wunderground v.1.15,2013-07-04 02:25:00,
2013-07-03 22:28:00,72.6,72.0,30.18,WNW,285,0.0,0.0,98,0.00,,,0.11,Wunderground v.1.15,2013-07-04 02:28:00,
2013-07-03 22:30:00,72.6,72.0,30.18,WNW,285,0.0,0.0,98,0.00,,,0.11,Wunderground v.1.15,2013-07-04 02:30:00,
2013-07-03 22:33:00,72.5,71.9,30.18,WSW,250,0.0,1.0,98,0.00,,,0.11,Wunderground v.1.15,2013-07-04 02:33:00,
2013-07-03 22:35:00,72.4,71.8,30.18,WSW,250,0.0,1.0,98,0.00,,,0.11,Wunderground v.1.15,2013-07-04 02:35:00,
2013-07-03 22:36:00,72.4,71.8,30.18,WSW,250,0.0,1.0,98,0.00,,,0.11,Wunderground v.1.15,2013-07-04 02:36:00,
2013-07-03 22:38:00,72.3,71.7,30.18,WSW,250,0.0,1.0,98,0.00,,,0.11,Wunderground v.1.15,2013-07-04 02:38:00,
2013-07-03 22:40:00,72.3,71.7,30.18,WNW,299,0.0,1.0,98,0.00,,,0.11,Wunderground v.1.15,2013-07-04 02:40:00,
2013-07-03 22:41:00,72.3,71.7,30.18,WNW,299,0.0,1.0,98,0.00,,,0.11,Wunderground v.1.15,2013-07-04 02:41:00,
2013-07-03 22:43:00,72.3,71.7,30.18,WSW,250,1.0,2.0,98,0.00,,,0.11,Wunderground v.1.15,2013-07-04 02:43:00,
2013-07-03 22:44:00,72.3,71.7,30.18,NW,315,0.0,2.0,98,0.00,,,0.11,Wunderground v.1.15,2013-07-04 02:44:00,
2013-07-03 22:45:00,72.2,71.6,30.18,WSW,248,1.0,2.0,98,0.00,,,0.11,Wunderground v.1.15,2013-07-04 02:45:00,
2013-07-03 22:46:00,72.2,71.6,30.18,WSW,238,0.0,2.0,98,0.00,,,0.11,Wunderground v.1.15,2013-07-04 02:46:00,
2013-07-03 22:48:00,72.2,71.6,30.17,WSW,250,0.0,2.0,98,0.00,,,0.11,Wunderground v.1.15,2013-07-04 02:48:00,
2013-07-03 22:49:00,72.1,71.5,30.18,SW,226,0.0,2.0,98,0.00,,,0.11,Wunderground v.1.15,2013-07-04 02:49:00,
2013-07-03 22:51:00,72.1,71.5,30.18,SW,226,0.0,0.0,98,0.00,,,0.11,Wunderground v.1.15,2013-07-04 02:51:00,
2013-07-03 22:53:00,72.0,71.4,30.17,SW,219,0.0,1.0,98,0.00,,,0.11,Wunderground v.1.15,2013-07-04 02:53:00,
2013-07-03 22:55:00,72.0,71.4,30.17,SW,219,0.0,1.0,98,0.00,,,0.11,Wunderground v.1.15,2013-07-04 02:55:00,
2013-07-03 22:56:00,72.0,71.4,30.17,SW,219,0.0,1.0,98,0.00,,,0.11,Wunderground v.1.15,2013-07-04 02:56:00,
2013-07-03 22:57:00,72.0,71.4,30.18,SW,219,0.0,1.0,98,0.00,,,0.11,Wunderground v.1.15,2013-07-04 02:57:00,
2013-07-03 23:00:00,71.9,71.3,30.18,WSW,238,0.0,0.0,98,0.00,,,0.11,Wunderground v.1.15,2013-07-04 03:00:00,
2013-07-03 23:01:00,71.8,71.2,30.18,WSW,238,0.0,0.0,98,0.00,,,0.11,Wunderground v.1.15,2013-07-04 03:01:00,
2013-07-03 23:02:00,71.8,71.2,30.18,NW,324,0.0,0.0,98,0.00,,,0.11,Wunderground v.1.15,2013-07-04 03:02:00,
2013-07-03 23:05:00,71.7,71.1,30.18,NW,325,0.0,1.0,98,0.00,,,0.11,Wunderground v.1.15,2013-07-04 03:05:00,
2013-07-03 23:07:00,71.7,71.1,30.18,NW,325,0.0,1.0,98,0.00,,,0.11,Wunderground v.1.15,2013-07-04 03:07:00,
2013-07-03 23:09:00,71.7,71.1,30.18,NW,324,0.0,1.0,98,0.00,,,0.11,Wunderground v.1.15,2013-07-04 03:09:00,
2013-07-03 23:11:00,71.6,71.0,30.18,NW,324,0.0,0.0,98,0.00,,,0.11,Wunderground v.1.15,2013-07-04 03:11:00,
2013-07-03 23:12:00,71.6,71.0,30.18,NW,324,0.0,0.0,98,0.00,,,0.11,Wunderground v.1.15,2013-07-04 03:12:00,
2013-07-03 23:13:00,71.6,71.0,30.18,NW,324,0.0,0.0,98,0.00,,,0.11,Wunderground v.1.15,2013-07-04 03:13:00,
2013-07-03 23:14:00,71.6,71.0,30.18,NW,325,0.0,0.0,98,0.00,,,0.11,Wunderground v.1.15,2013-07-04 03:14:00,
2013-07-03 23:16:00,71.6,71.0,30.18,NW,324,0.0,0.0,98,0.00,,,0.11,Wunderground v.1.15,2013-07-04 03:16:00,
2013-07-03 23:18:00,71.6,71.0,30.18,NW,324,0.0,0.0,98,0.00,,,0.11,Wunderground v.1.15,2013-07-04 03:18:00,
2013-07-03 23:20:00,71.6,71.0,30.18,NW,324,0.0,0.0,98,0.00,,,0.11,Wunderground v.1.15,2013-07-04 03:20:00,
2013-07-03 23:21:00,71.6,71.0,30.18,NW,324,0.0,0.0,98,0.00,,,0.11,Wunderground v.1.15,2013-07-04 03:21:00,
2013-07-03 23:26:00,71.6,71.0,30.18,NW,325,0.0,0.0,98,0.00,,,0.11,Wunderground v.1.15,2013-07-04 03:26:00,
2013-07-03 23:27:00,71.6,71.0,30.18,NW,325,0.0,0.0,98,0.00,,,0.11,Wunderground v.1.15,2013-07-04 03:27:00,
2013-07-03 23:31:00,71.6,71.0,30.18,NNE,29,0.0,0.0,98,0.00,,,0.11,Wunderground v.1.15,2013-07-04 03:31:00,
2013-07-03 23:32:00,71.6,71.0,30.18,NNE,29,0.0,0.0,98,0.00,,,0.11,Wunderground v.1.15,2013-07-04 03:32:00,
2013-07-03 23:33:00,71.6,71.0,30.18,NNE,28,0.0,0.0,98,0.00,,,0.11,Wunderground v.1.15,2013-07-04 03:33:00,
2013-07-03 23:34:00,71.6,71.0,30.18,NNE,29,0.0,0.0,98,0.00,,,0.11,Wunderground v.1.15,2013-07-04 03:34:00,
2013-07-03 23:37:00,71.7,71.4,30.18,NNE,28,0.0,0.0,99,0.00,,,0.11,Wunderground v.1.15,2013-07-04 03:37:00,
2013-07-03 23:39:00,71.8,71.5,30.19,WNW,302,0.0,1.0,99,0.00,,,0.11,Wunderground v.1.15,2013-07-04 03:39:00,
2013-07-03 23:40:00,71.8,71.5,30.19,WNW,302,0.0,0.0,99,0.00,,,0.11,Wunderground v.1.15,2013-07-04 03:40:00,
2013-07-03 23:42:00,71.8,71.5,30.19,WNW,302,0.0,0.0,99,0.00,,,0.11,Wunderground v.1.15,2013-07-04 03:42:00,
2013-07-03 23:43:00,71.8,71.5,30.18,WNW,302,0.0,0.0,99,0.00,,,0.11,Wunderground v.1.15,2013-07-04 03:43:00,
2013-07-03 23:45:00,71.8,71.5,30.19,WNW,302,0.0,0.0,99,0.00,,,0.11,Wunderground v.1.15,2013-07-04 03:45:00,
2013-07-03 23:47:00,71.8,71.5,30.18,WNW,302,0.0,0.0,99,0.00,,,0.11,Wunderground v.1.15,2013-07-04 03:47:00,
2013-07-03 23:49:00,71.8,71.5,30.19,WNW,302,0.0,0.0,99,0.00,,,0.11,Wunderground v.1.15,2013-07-04 03:49:00,
2013-07-03 23:50:00,71.9,71.6,30.19,WNW,302,0.0,0.0,99,0.00,,,0.11,Wunderground v.1.15,2013-07-04 03:50:00,
2013-07-03 23:53:00,71.9,71.6,30.19,WSW,254,0.0,1.0,99,0.00,,,0.11,Wunderground v.1.15,2013-07-04 03:53:00,
2013-07-03 23:54:00,71.9,71.6,30.19,WSW,255,0.0,1.0,99,0.00,,,0.11,Wunderground v.1.15,2013-07-04 03:54:00,
2013-07-03 23:56:00,71.9,71.6,30.19,WSW,254,0.0,1.0,99,0.00,,,0.11,Wunderground v.1.15,2013-07-04 03:56:00,
2013-07-03 23:59:00,71.9,71.6,30.19,WSW,255,0.0,1.0,99,0.00,,,0.11,Wunderground v.1.15,2013-07-04 03:59:00,